AFR473 FIMP-LFPG

Flight info

Callsign AFR473
Flight time N/A
Altitude 32000
Route NIBIS2A NIBIS UG661 DV UA401 AVATU/N0502F340 UA401 NN UW325 SIPKI/N0506F330 UT325 POGBA/N0502F340 UT325 FL UM731 BUNLU/N0494F360 UM731 DIR UB730 DJA UM2 CSO UM998 KAMER/N0480F380 DCT NAFOQ DCT SURJU DCT PADKO DCT MRM DCT MTL DCT ETREK DCT RUSIT DCT BULOL DCT LOGNI DCT MOKIP DCT ARFOZ DCT TINIL
Aircraft B77W/H-SDE1E2E3FGHIJ2J3J4J5M1RWXY/LB1D1

Departure

Time 2026-05-08 19:38
Airport Sir Seewoosagur Ramgoolam International Airport (FIMP)

Arrival

Time N/A
Airport Charles de Gaulle International Airport (LFPG)
Time Latitude Longitude Altitude Speed Heading
2026-05-08 18:58 -20.43386 57.68011 191 ft 0 kts 263°
2026-05-08 19:26 -20.43386 57.68014 190 ft 2 kts 263°
2026-05-08 19:26 -20.43384 57.68030 190 ft 2 kts 263°
2026-05-08 19:26 -20.43383 57.68046 190 ft 2 kts 275°
2026-05-08 19:26 -20.43386 57.68062 189 ft 2 kts 290°
2026-05-08 19:27 -20.43392 57.68076 189 ft 2 kts 302°
2026-05-08 19:27 -20.43401 57.68089 188 ft 2 kts 315°
2026-05-08 19:27 -20.43413 57.68099 188 ft 2 kts 328°
2026-05-08 19:27 -20.43426 57.68106 188 ft 2 kts 341°
2026-05-08 19:28 -20.43441 57.68110 188 ft 2 kts 354°
2026-05-08 19:28 -20.43450 57.68111 188 ft 0 kts
2026-05-08 19:31 -20.43447 57.68111 188 ft 1 kts 360°
2026-05-08 19:31 -20.43434 57.68110 188 ft 2 kts 357°
2026-05-08 19:31 -20.43405 57.68109 188 ft 5 kts 356°
2026-05-08 19:31 -20.43359 57.68102 188 ft 8 kts 350°
2026-05-08 19:32 -20.43293 57.68086 187 ft 11 kts 342°
2026-05-08 19:32 -20.43212 57.68045 186 ft 14 kts 326°
2026-05-08 19:32 -20.43139 57.67976 189 ft 13 kts 313°
2026-05-08 19:32 -20.43088 57.67903 194 ft 11 kts 301°
2026-05-08 19:33 -20.43053 57.67833 197 ft 10 kts 297°
2026-05-08 19:33 -20.43017 57.67755 198 ft 12 kts 295°
2026-05-08 19:33 -20.42970 57.67669 197 ft 15 kts 310°
2026-05-08 19:33 -20.42875 57.67601 196 ft 17 kts 328°
2026-05-08 19:34 -20.42775 57.67529 200 ft 16 kts 320°
2026-05-08 19:34 -20.42683 57.67471 204 ft 14 kts 340°
2026-05-08 19:34 -20.42590 57.67430 206 ft 14 kts 317°
2026-05-08 19:34 -20.42533 57.67336 207 ft 15 kts 296°
2026-05-08 19:35 -20.42505 57.67270 207 ft 2 kts 269°
2026-05-08 19:35 -20.42511 57.67238 208 ft 5 kts 261°
2026-05-08 19:35 -20.42493 57.67207 208 ft 5 kts 348°
2026-05-08 19:35 -20.42478 57.67227 208 ft 4 kts 112°
2026-05-08 19:36 -20.42488 57.67247 208 ft 0 kts 118°
2026-05-08 19:37 -20.42489 57.67248 208 ft 0 kts 118°
2026-05-08 19:37 -20.42491 57.67252 207 ft 6 kts 118°
2026-05-08 19:37 -20.42616 57.67509 205 ft 71 kts 117°
2026-05-08 19:37 -20.42941 57.68186 182 ft 132 kts 117°
2026-05-08 19:38 -20.43451 57.69244 142 ft 186 kts 117°
2026-05-08 19:38 -20.44061 57.70564 433 ft 201 kts 112°
2026-05-08 19:38 -20.44633 57.71890 1081 ft 203 kts 114°
2026-05-08 19:38 -20.45374 57.73161 1736 ft 205 kts 126°
2026-05-08 19:39 -20.46521 57.74210 1953 ft 229 kts 145°
2026-05-08 19:39 -20.48064 57.74804 2334 ft 244 kts 170°
2026-05-08 19:39 -20.49768 57.74591 2958 ft 253 kts 195°
2026-05-08 19:39 -20.51261 57.73556 3466 ft 265 kts 224°
2026-05-08 19:40 -20.52385 57.71989 4141 ft 265 kts 231°
2026-05-08 19:40 -20.53206 57.70225 4637 ft 273 kts 256°
2026-05-08 19:40 -20.53148 57.68213 5111 ft 277 kts 288°
2026-05-08 19:40 -20.52230 57.66430 5692 ft 275 kts 306°
2026-05-08 19:41 -20.51103 57.64761 6323 ft 275 kts 306°
2026-05-08 19:41 -20.49983 57.63122 6871 ft 277 kts 306°
2026-05-08 19:41 -20.48842 57.61456 7436 ft 279 kts 306°
2026-05-08 19:41 -20.47695 57.59781 7964 ft 281 kts 306°
2026-05-08 19:42 -20.46539 57.58094 8499 ft 283 kts 306°
2026-05-08 19:42 -20.45379 57.56401 9021 ft 285 kts 306°
2026-05-08 19:42 -20.44203 57.54686 9549 ft 286 kts 306°
2026-05-08 19:42 -20.43026 57.52970 10040 ft 289 kts 306°
2026-05-08 19:43 -20.41841 57.51244 10546 ft 290 kts 306°
2026-05-08 19:43 -20.40635 57.49488 11038 ft 293 kts 306°
2026-05-08 19:43 -20.39434 57.47740 11506 ft 295 kts 306°
2026-05-08 19:43 -20.38227 57.45983 11982 ft 297 kts 306°
2026-05-08 19:44 -20.37004 57.44204 12449 ft 299 kts 306°
2026-05-08 19:44 -20.35762 57.42398 12904 ft 301 kts 306°
2026-05-08 19:44 -20.34524 57.40599 13325 ft 304 kts 306°
2026-05-08 19:44 -20.33279 57.38790 13792 ft 305 kts 306°
2026-05-08 19:45 -20.32014 57.36953 14195 ft 310 kts 306°
2026-05-08 19:45 -20.30701 57.35048 14323 ft 327 kts 306°
2026-05-08 19:45 -20.29312 57.33039 14427 ft 345 kts 306°
2026-05-08 19:45 -20.27861 57.30941 14549 ft 363 kts 306°
2026-05-08 19:46 -20.26331 57.28731 14715 ft 379 kts 306°
2026-05-08 19:46 -20.24733 57.26423 14893 ft 395 kts 306°
2026-05-08 19:46 -20.21357 57.21554 15525 ft 417 kts 306°
2026-05-08 19:47 -20.19629 57.19061 16182 ft 417 kts 306°
2026-05-08 19:47 -20.17912 57.16587 16775 ft 419 kts 306°
2026-05-08 19:47 -20.16182 57.14095 17320 ft 421 kts 306°
2026-05-08 19:47 -20.14430 57.11572 17853 ft 424 kts 306°
2026-05-08 19:48 -20.12686 57.09063 18381 ft 426 kts 306°
2026-05-08 19:48 -20.10915 57.06516 18882 ft 429 kts 306°
2026-05-08 19:48 -20.09142 57.03968 19359 ft 432 kts 306°
2026-05-08 19:48 -20.07333 57.01369 19825 ft 434 kts 306°
2026-05-08 19:49 -20.05536 56.98790 20288 ft 437 kts 306°
2026-05-08 19:49 -20.03724 56.96190 20733 ft 439 kts 306°
2026-05-08 19:49 -20.01915 56.93595 21154 ft 442 kts 306°
2026-05-08 19:49 -20.00063 56.90941 21579 ft 444 kts 306°
2026-05-08 19:50 -19.98235 56.88323 21981 ft 447 kts 306°
2026-05-08 19:50 -19.96358 56.85636 22410 ft 449 kts 306°
2026-05-08 19:50 -19.94503 56.82982 22840 ft 451 kts 306°
2026-05-08 19:50 -19.92638 56.80315 23231 ft 453 kts 306°
2026-05-08 19:51 -19.90736 56.77597 23619 ft 456 kts 306°
2026-05-08 19:51 -19.88857 56.74915 24006 ft 459 kts 306°
2026-05-08 19:51 -19.86952 56.72195 24402 ft 461 kts 306°
2026-05-08 19:51 -19.85033 56.69458 24781 ft 464 kts 306°
2026-05-08 19:52 -19.83086 56.66681 25152 ft 466 kts 306°
2026-05-08 19:52 -19.81150 56.63923 25534 ft 469 kts 306°
2026-05-08 19:52 -19.79201 56.61147 25899 ft 471 kts 306°
2026-05-08 19:52 -19.77245 56.58363 26273 ft 474 kts 305°
2026-05-08 19:53 -19.75252 56.55528 26651 ft 476 kts 305°
2026-05-08 19:53 -19.73274 56.52715 27014 ft 479 kts 305°
2026-05-08 19:53 -19.71280 56.49882 27368 ft 481 kts 305°
2026-05-08 19:53 -19.69277 56.47037 27732 ft 483 kts 305°
2026-05-08 19:54 -19.67249 56.44161 28084 ft 485 kts 305°
2026-05-08 19:54 -19.65227 56.41292 28423 ft 488 kts 305°
2026-05-08 19:54 -19.63197 56.38415 28758 ft 490 kts 305°
2026-05-08 19:54 -19.61155 56.35523 29091 ft 492 kts 305°
2026-05-08 19:55 -19.59094 56.32606 29477 ft 493 kts 305°
2026-05-08 19:55 -19.57036 56.29696 29987 ft 490 kts 305°
2026-05-08 19:55 -19.55016 56.26843 30541 ft 486 kts 305°
2026-05-08 19:55 -19.52982 56.23970 31069 ft 483 kts 305°
2026-05-08 19:56 -19.50989 56.21159 31523 ft 481 kts 305°
2026-05-08 19:56 -19.48971 56.18314 31942 ft 479 kts 305°
2026-05-08 19:56 -19.46973 56.15497 32091 ft 482 kts 305°
2026-05-08 19:56 -19.44971 56.12678 32104 ft 481 kts 305°
2026-05-08 19:57 -19.40937 56.07005 32102 ft 480 kts 305°
2026-05-08 19:57 -19.36924 56.01368 32101 ft 479 kts 305°
2026-05-08 19:58 -19.32914 55.95744 32102 ft 479 kts 305°
2026-05-08 19:58 -19.28904 55.90127 32100 ft 479 kts 305°
2026-05-08 19:59 -19.24879 55.84500 32098 ft 480 kts 305°
2026-05-08 19:59 -19.20854 55.78881 32098 ft 480 kts 305°
2026-05-08 20:00 -19.16807 55.73242 32096 ft 480 kts 305°
2026-05-08 20:00 -19.12785 55.67652 32096 ft 480 kts 305°
2026-05-08 20:01 -19.08687 55.61971 32092 ft 480 kts 305°
2026-05-08 20:01 -19.04636 55.56382 32095 ft 480 kts 306°
2026-05-08 20:02 -19.00639 55.50722 32101 ft 480 kts 303°
2026-05-08 20:02 -18.96847 55.44949 32091 ft 480 kts 303°
2026-05-08 20:03 -18.93026 55.39178 32090 ft 479 kts 303°
2026-05-08 20:03 -18.89199 55.33431 32094 ft 480 kts 303°
2026-05-08 20:04 -18.85348 55.27666 32092 ft 480 kts 303°
2026-05-08 20:04 -18.81495 55.21912 32091 ft 480 kts 303°
2026-05-08 20:05 -18.77651 55.16180 32090 ft 480 kts 303°
2026-05-08 20:05 -18.73764 55.10391 32088 ft 480 kts 303°
2026-05-08 20:06 -18.69904 55.04650 32089 ft 480 kts 303°
2026-05-08 20:06 -18.66024 54.98884 32089 ft 481 kts 303°
2026-05-08 20:07 -18.62157 54.93144 32084 ft 481 kts 303°
2026-05-08 20:07 -18.58295 54.87416 32086 ft 481 kts 303°
2026-05-08 20:08 -18.54422 54.81676 32086 ft 480 kts 303°
2026-05-08 20:08 -18.50549 54.75942 32084 ft 480 kts 303°
2026-05-08 20:09 -18.46681 54.70223 32084 ft 481 kts 303°
2026-05-08 20:09 -18.42815 54.64514 32084 ft 481 kts 303°
2026-05-08 20:10 -18.38919 54.58768 32081 ft 481 kts 303°
2026-05-08 20:10 -18.35029 54.53035 32079 ft 482 kts 303°
2026-05-08 20:11 -18.31128 54.47290 32080 ft 481 kts 303°
2026-05-08 20:11 -18.27231 54.41558 32080 ft 480 kts 303°
2026-05-08 20:12 -18.23356 54.35861 32077 ft 480 kts 303°
2026-05-08 20:12 -18.19461 54.30140 32081 ft 482 kts 303°
2026-05-08 20:13 -18.15572 54.24433 32080 ft 481 kts 303°
2026-05-08 20:13 -18.11675 54.18720 32080 ft 482 kts 303°
2026-05-08 20:14 -18.07758 54.12979 32079 ft 482 kts 303°
2026-05-08 20:14 -18.03860 54.07267 32079 ft 483 kts 303°
2026-05-08 20:15 -17.99928 54.01510 32078 ft 483 kts 303°
2026-05-08 20:15 -17.96016 53.95787 32074 ft 483 kts 303°
2026-05-08 20:16 -17.92118 53.90089 32071 ft 482 kts 303°
2026-05-08 20:16 -17.88192 53.84356 32071 ft 483 kts 303°
2026-05-08 20:17 -17.84265 53.78625 32069 ft 484 kts 303°
2026-05-08 20:17 -17.80334 53.72895 32066 ft 483 kts 303°
2026-05-08 20:18 -17.76405 53.67172 32067 ft 485 kts 303°
2026-05-08 20:18 -17.72478 53.61456 32067 ft 485 kts 303°
2026-05-08 20:19 -17.68540 53.55730 32067 ft 485 kts 303°
2026-05-08 20:19 -17.64600 53.50006 32065 ft 485 kts 303°
2026-05-08 20:20 -17.60645 53.44265 32064 ft 484 kts 303°
2026-05-08 20:20 -17.56708 53.38555 32064 ft 485 kts 303°
2026-05-08 20:21 -17.52756 53.32828 32067 ft 485 kts 303°
2026-05-08 20:21 -17.48790 53.27086 32065 ft 486 kts 303°
2026-05-08 20:22 -17.44838 53.21369 32065 ft 487 kts 303°
2026-05-08 20:22 -17.41537 53.16597 32062 ft 487 kts 303°
2026-05-08 20:23 -17.36888 53.09884 32064 ft 487 kts 303°
2026-05-08 20:23 -17.32936 53.04181 32061 ft 486 kts 303°
2026-05-08 20:24 -17.28949 52.98432 32061 ft 487 kts 303°
2026-05-08 20:24 -17.24994 52.92735 32061 ft 485 kts 303°
2026-05-08 20:25 -17.21015 52.87007 32061 ft 486 kts 303°
2026-05-08 20:25 -17.17034 52.81283 32057 ft 486 kts 303°
2026-05-08 20:26 -17.13081 52.75603 32055 ft 486 kts 303°
2026-05-08 20:26 -17.09098 52.69884 32058 ft 487 kts 303°
2026-05-08 20:27 -17.05105 52.64156 32057 ft 487 kts 303°
2026-05-08 20:27 -17.01123 52.58449 32054 ft 487 kts 303°
2026-05-08 20:28 -16.97119 52.52715 32054 ft 486 kts 303°
2026-05-08 20:28 -16.93131 52.47008 32052 ft 489 kts 303°
2026-05-08 20:29 -16.89129 52.41286 32047 ft 487 kts 303°
2026-05-08 20:29 -16.85134 52.35577 32048 ft 488 kts 303°
2026-05-08 20:30 -16.81133 52.29868 32052 ft 489 kts 303°
2026-05-08 20:30 -16.77096 52.24112 32050 ft 491 kts 303°
2026-05-08 20:31 -16.73057 52.18358 32050 ft 491 kts 303°
2026-05-08 20:31 -16.69045 52.12648 32050 ft 491 kts 303°
2026-05-08 20:32 -16.65000 52.06895 32044 ft 490 kts 303°
2026-05-08 20:32 -16.60986 52.01191 32045 ft 491 kts 303°
2026-05-08 20:33 -16.56936 51.95441 32045 ft 491 kts 303°
2026-05-08 20:33 -16.52904 51.89719 32045 ft 491 kts 303°
2026-05-08 20:34 -16.48837 51.83954 32047 ft 492 kts 303°
2026-05-08 20:35 -16.42765 51.75355 32044 ft 493 kts 303°
2026-05-08 20:35 -16.38726 51.69640 32042 ft 492 kts 303°
2026-05-08 20:36 -16.34657 51.63888 32045 ft 493 kts 303°
2026-05-08 20:36 -16.30574 51.58121 32045 ft 494 kts 303°
2026-05-08 20:37 -16.26500 51.52370 32047 ft 495 kts 303°
2026-05-08 20:37 -16.22437 51.46641 32049 ft 494 kts 303°
2026-05-08 20:38 -16.18346 51.40875 32049 ft 494 kts 303°
2026-05-08 20:38 -16.14258 51.35119 32049 ft 494 kts 303°
2026-05-08 20:39 -16.10329 51.29590 32052 ft 497 kts 304°
2026-05-08 20:39 -16.06233 51.23831 32053 ft 497 kts 304°
2026-05-08 20:40 -16.02121 51.18055 32050 ft 498 kts 304°
2026-05-08 20:40 -15.97987 51.12252 32053 ft 499 kts 304°
2026-05-08 20:41 -15.93883 51.06497 32053 ft 498 kts 304°
2026-05-08 20:41 -15.89738 51.00687 32055 ft 501 kts 304°
2026-05-08 20:42 -15.85582 50.94868 32049 ft 501 kts 303°
2026-05-08 20:42 -15.81427 50.89053 32049 ft 500 kts 304°
2026-05-08 20:43 -15.77302 50.83285 32047 ft 500 kts 304°
2026-05-08 20:43 -15.73155 50.77493 32051 ft 499 kts 303°
2026-05-08 20:44 -15.69022 50.71722 32049 ft 499 kts 304°
2026-05-08 20:44 -15.64866 50.65926 32054 ft 499 kts 303°
2026-05-08 20:45 -15.60756 50.60197 32052 ft 498 kts 303°
2026-05-08 20:45 -15.56603 50.54413 32054 ft 499 kts 303°
2026-05-08 20:46 -15.52464 50.48652 32056 ft 499 kts 303°
2026-05-08 20:46 -15.48312 50.42878 32074 ft 500 kts 304°
2026-05-08 20:47 -15.44140 50.37081 32085 ft 499 kts 304°
2026-05-08 20:47 -15.39992 50.31321 32095 ft 500 kts 304°
2026-05-08 20:48 -15.35847 50.25570 32110 ft 499 kts 304°
2026-05-08 20:48 -15.31698 50.19817 32114 ft 499 kts 304°
2026-05-08 20:49 -15.27526 50.14038 32129 ft 499 kts 304°
2026-05-08 20:49 -15.23381 50.08300 32141 ft 499 kts 304°
2026-05-08 20:50 -15.19217 50.02539 32157 ft 501 kts 304°
2026-05-08 20:50 -15.15035 49.96758 32165 ft 500 kts 304°
2026-05-08 20:51 -15.10871 49.91007 32153 ft 500 kts 304°
2026-05-08 20:51 -15.06701 49.85251 32149 ft 500 kts 304°
2026-05-08 20:52 -15.02518 49.79482 32151 ft 500 kts 304°
2026-05-08 20:52 -14.98362 49.73754 32150 ft 500 kts 304°
2026-05-08 20:53 -14.94163 49.67970 32168 ft 500 kts 304°
2026-05-08 20:53 -14.90005 49.62247 32180 ft 501 kts 304°
2026-05-08 20:54 -14.85798 49.56461 32182 ft 502 kts 304°
2026-05-08 20:54 -14.81615 49.50711 32194 ft 502 kts 304°
2026-05-08 20:55 -14.77421 49.44953 32194 ft 502 kts 304°
2026-05-08 20:55 -14.73215 49.39180 32200 ft 502 kts 304°
2026-05-08 20:56 -14.69024 49.33433 32215 ft 501 kts 304°
2026-05-08 20:56 -14.64808 49.27656 32234 ft 502 kts 304°
2026-05-08 20:57 -14.60619 49.21919 32249 ft 501 kts 304°
2026-05-08 20:57 -14.56422 49.16175 32253 ft 501 kts 304°
2026-05-08 20:58 -14.52211 49.10419 32259 ft 501 kts 305°
2026-05-08 20:58 -14.48039 49.04717 32258 ft 503 kts 304°
2026-05-08 20:59 -14.43821 48.98957 32255 ft 501 kts 304°
2026-05-08 20:59 -14.39605 48.93205 32261 ft 503 kts 304°
2026-05-08 21:00 -14.35392 48.87460 32263 ft 502 kts 304°
2026-05-08 21:00 -14.31167 48.81704 32265 ft 502 kts 305°
2026-05-08 21:01 -14.26973 48.75993 32271 ft 502 kts 305°
2026-05-08 21:01 -14.22742 48.70236 32265 ft 502 kts 305°
2026-05-08 21:02 -14.18550 48.64536 32239 ft 502 kts 305°
2026-05-08 21:02 -14.14331 48.58803 32223 ft 502 kts 305°
2026-05-08 21:03 -14.10106 48.53067 32199 ft 502 kts 304°
2026-05-08 21:03 -14.05880 48.47332 32203 ft 502 kts 304°
2026-05-08 21:04 -14.01675 48.41631 32176 ft 502 kts 305°
2026-05-08 21:04 -13.97441 48.35894 32120 ft 503 kts 304°
2026-05-08 21:05 -13.93199 48.30149 32069 ft 503 kts 305°
2026-05-08 21:05 -13.88965 48.24420 32055 ft 504 kts 305°
2026-05-08 21:06 -13.84670 48.18611 32031 ft 502 kts 305°
2026-05-08 21:06 -13.80435 48.12889 32017 ft 504 kts 305°
2026-05-08 21:07 -13.76178 48.07140 32011 ft 504 kts 305°
2026-05-08 21:07 -13.71959 48.01446 32002 ft 503 kts 305°
2026-05-08 21:08 -13.67724 47.95736 31985 ft 503 kts 305°
2026-05-08 21:08 -13.63476 47.90013 31980 ft 503 kts 305°
2026-05-08 21:09 -13.59248 47.84320 31973 ft 502 kts 305°
2026-05-08 21:09 -13.55000 47.78605 31973 ft 504 kts 306°
2026-05-08 21:10 -13.50722 47.72852 31971 ft 504 kts 306°
2026-05-08 21:10 -13.46468 47.67136 31973 ft 504 kts 306°
2026-05-08 21:11 -13.42242 47.61461 31972 ft 502 kts 306°
2026-05-08 21:11 -13.37998 47.55766 31973 ft 502 kts 306°
2026-05-08 21:12 -13.33738 47.50052 31973 ft 502 kts 306°
2026-05-08 21:12 -13.29488 47.44357 31974 ft 503 kts 306°
2026-05-08 21:13 -13.25255 47.38686 31974 ft 503 kts 306°
2026-05-08 21:13 -13.20982 47.32967 31973 ft 504 kts 306°
2026-05-08 21:14 -13.16723 47.27270 31973 ft 504 kts 306°
2026-05-08 21:14 -13.12452 47.21561 31972 ft 504 kts 306°
2026-05-08 21:15 -13.08193 47.15871 31974 ft 502 kts 306°
2026-05-08 21:15 -13.03931 47.10181 31972 ft 504 kts 306°
2026-05-08 21:16 -12.99695 47.04530 31975 ft 504 kts 306°
2026-05-08 21:16 -12.95415 46.98823 31974 ft 504 kts 306°
2026-05-08 21:17 -12.91142 46.93128 31972 ft 504 kts 306°
2026-05-08 21:17 -12.86876 46.87448 31971 ft 505 kts 306°
2026-05-08 21:18 -12.82588 46.81741 31972 ft 504 kts 306°
2026-05-08 21:18 -12.78309 46.76049 31980 ft 503 kts 306°
2026-05-08 21:19 -12.74034 46.70367 31984 ft 503 kts 306°
2026-05-08 21:19 -12.69762 46.64692 31984 ft 504 kts 306°
2026-05-08 21:20 -12.65486 46.59015 31983 ft 504 kts 306°
2026-05-08 21:20 -12.61202 46.53332 31984 ft 504 kts 306°
2026-05-08 21:21 -12.56924 46.47659 31987 ft 505 kts 306°
2026-05-08 21:21 -12.52650 46.41996 31988 ft 503 kts 306°
2026-05-08 21:22 -12.48352 46.36305 31989 ft 504 kts 307°
2026-05-08 21:22 -12.44059 46.30622 31987 ft 504 kts 307°
2026-05-08 21:23 -12.39770 46.24950 31988 ft 505 kts 307°
2026-05-08 21:23 -12.35500 46.19305 31989 ft 504 kts 307°
2026-05-08 21:24 -12.31190 46.13612 31990 ft 503 kts 307°
2026-05-08 21:24 -12.26922 46.07977 31991 ft 504 kts 307°
2026-05-08 21:25 -12.22629 46.02314 31991 ft 503 kts 307°
2026-05-08 21:25 -12.18336 45.96653 31992 ft 504 kts 307°
2026-05-08 21:26 -12.14065 45.91024 31993 ft 504 kts 307°
2026-05-08 21:26 -12.09772 45.85370 31993 ft 504 kts 307°
2026-05-08 21:27 -12.05460 45.79695 31993 ft 503 kts 307°
2026-05-08 21:27 -12.01158 45.74035 31984 ft 504 kts 307°
2026-05-08 21:28 -11.96881 45.68413 31979 ft 503 kts 307°
2026-05-08 21:28 -11.92585 45.62768 31975 ft 504 kts 307°
2026-05-08 21:29 -11.88271 45.57103 31971 ft 504 kts 307°
2026-05-08 21:29 -11.83972 45.51461 31971 ft 503 kts 307°
2026-05-08 21:30 -11.79664 45.45811 31970 ft 505 kts 307°
2026-05-08 21:30 -11.75382 45.40197 31970 ft 504 kts 307°
2026-05-08 21:31 -11.71059 45.34533 31971 ft 505 kts 307°
2026-05-08 21:31 -11.66721 45.28853 31967 ft 505 kts 307°
2026-05-08 21:32 -11.62395 45.23191 31968 ft 506 kts 307°
2026-05-08 21:32 -11.58085 45.17555 31969 ft 505 kts 307°
2026-05-08 21:33 -11.53758 45.11897 31969 ft 505 kts 308°
2026-05-08 21:33 -11.49436 45.06251 31970 ft 506 kts 307°
2026-05-08 21:34 -11.45114 45.00608 31971 ft 506 kts 307°
2026-05-08 21:34 -11.40772 44.94942 31972 ft 507 kts 307°
2026-05-08 21:35 -11.36427 44.89274 31972 ft 507 kts 307°
2026-05-08 21:35 -11.32089 44.83619 31972 ft 507 kts 307°
2026-05-08 21:36 -11.27743 44.77958 31972 ft 508 kts 307°
2026-05-08 21:36 -11.23419 44.72327 31973 ft 507 kts 307°
2026-05-08 21:37 -11.19070 44.66667 31973 ft 507 kts 307°
2026-05-08 21:37 -11.14704 44.60989 31974 ft 508 kts 307°
2026-05-08 21:38 -11.10350 44.55329 31974 ft 508 kts 307°
2026-05-08 21:38 -11.05996 44.49671 31975 ft 509 kts 307°
2026-05-08 21:39 -11.01622 44.43991 31975 ft 511 kts 308°
2026-05-08 21:39 -10.97255 44.38323 31975 ft 509 kts 307°
2026-05-08 21:40 -10.92863 44.32626 31970 ft 509 kts 308°
2026-05-08 21:40 -10.88489 44.26953 31968 ft 509 kts 308°
2026-05-08 21:41 -10.81941 44.18467 31969 ft 509 kts 308°
2026-05-08 21:41 -10.77567 44.12800 31969 ft 511 kts 308°
2026-05-08 21:42 -10.73181 44.07123 31970 ft 511 kts 308°
2026-05-08 21:42 -10.68797 44.01451 31970 ft 510 kts 308°
2026-05-08 21:43 -10.64427 43.95799 31970 ft 509 kts 308°
2026-05-08 21:43 -10.60040 43.90129 31972 ft 510 kts 308°
2026-05-08 21:44 -10.55656 43.84467 31972 ft 510 kts 308°
2026-05-08 21:44 -10.51270 43.78803 31972 ft 511 kts 308°
2026-05-08 21:45 -10.46864 43.73117 31973 ft 511 kts 308°
2026-05-08 21:45 -10.42467 43.67446 31973 ft 510 kts 308°
2026-05-08 21:46 -10.38085 43.61795 31973 ft 511 kts 308°
2026-05-08 21:46 -10.33693 43.56132 31974 ft 510 kts 308°
2026-05-08 21:47 -10.29291 43.50459 31974 ft 511 kts 308°
2026-05-08 21:47 -10.24920 43.44829 31974 ft 511 kts 308°
2026-05-08 21:48 -10.20496 43.39134 31970 ft 510 kts 308°
2026-05-08 21:48 -10.16099 43.33476 31959 ft 511 kts 308°
2026-05-08 21:49 -10.11717 43.27840 31952 ft 510 kts 308°
2026-05-08 21:49 -10.07320 43.22188 31951 ft 511 kts 308°
2026-05-08 21:50 -10.02924 43.16539 31951 ft 511 kts 308°
2026-05-08 21:50 -9.98505 43.10864 31950 ft 510 kts 308°
2026-05-08 21:51 -9.94114 43.05227 31951 ft 511 kts 308°
2026-05-08 21:51 -9.89704 42.99569 31952 ft 512 kts 309°
2026-05-08 21:52 -9.85300 42.93922 31950 ft 510 kts 308°
2026-05-08 21:52 -9.80893 42.88273 31950 ft 510 kts 308°
2026-05-08 21:53 -9.76501 42.82646 31952 ft 510 kts 308°
2026-05-08 21:53 -9.72085 42.76990 31951 ft 511 kts 308°
2026-05-08 21:54 -9.67696 42.71372 31952 ft 510 kts 308°
2026-05-08 21:54 -9.63288 42.65734 31952 ft 510 kts 308°
2026-05-08 21:55 -9.58900 42.60122 31952 ft 509 kts 308°
2026-05-08 21:56 -9.52305 42.51694 31954 ft 509 kts 308°
2026-05-08 21:56 -9.47879 42.46040 31954 ft 509 kts 308°
2026-05-08 21:57 -9.43502 42.40453 31954 ft 509 kts 308°
2026-05-08 21:57 -9.39094 42.34828 31955 ft 509 kts 308°
2026-05-08 21:58 -9.34688 42.29207 31950 ft 508 kts 308°
2026-05-08 21:58 -9.30292 42.23603 31949 ft 508 kts 308°
2026-05-08 21:59 -9.25911 42.18020 31950 ft 508 kts 308°
2026-05-08 21:59 -9.21532 42.12442 31951 ft 507 kts 308°
2026-05-08 22:00 -9.17140 42.06850 31951 ft 508 kts 308°
2026-05-08 22:00 -9.12735 42.01243 31952 ft 508 kts 308°
2026-05-08 22:01 -9.08359 41.95677 31951 ft 507 kts 308°
2026-05-08 22:01 -9.03952 41.90074 31952 ft 507 kts 308°
2026-05-08 22:02 -8.99581 41.84518 31952 ft 506 kts 308°
2026-05-08 22:02 -8.95221 41.78978 31952 ft 506 kts 308°
2026-05-08 22:03 -8.90826 41.73397 31952 ft 507 kts 308°
2026-05-08 22:03 -8.86437 41.67826 31951 ft 507 kts 308°
2026-05-08 22:04 -8.82042 41.62249 31951 ft 507 kts 308°
2026-05-08 22:04 -8.77662 41.56695 31953 ft 507 kts 308°
2026-05-08 22:05 -8.73249 41.51100 31952 ft 505 kts 308°
2026-05-08 22:05 -8.68840 41.45571 31950 ft 506 kts 309°
2026-05-08 22:06 -8.64382 41.40057 31950 ft 505 kts 309°
2026-05-08 22:06 -8.59903 41.34515 31948 ft 506 kts 309°
2026-05-08 22:07 -8.55443 41.28996 31940 ft 506 kts 309°
2026-05-08 22:07 -8.50999 41.23499 31939 ft 506 kts 309°
2026-05-08 22:08 -8.46562 41.18010 31938 ft 505 kts 309°
2026-05-08 22:08 -8.42123 41.12521 31935 ft 505 kts 309°
2026-05-08 22:09 -8.37674 41.07022 31929 ft 506 kts 309°
2026-05-08 22:09 -8.33202 41.01497 31929 ft 505 kts 309°
2026-05-08 22:10 -8.28772 40.96025 31931 ft 505 kts 309°
2026-05-08 22:10 -8.24344 40.90558 31933 ft 504 kts 309°
2026-05-08 22:11 -8.19873 40.85041 31930 ft 504 kts 309°
2026-05-08 22:11 -8.15538 40.79498 31935 ft 505 kts 307°
2026-05-08 22:12 -8.11279 40.73890 31931 ft 505 kts 307°
2026-05-08 22:12 -8.07014 40.68288 31933 ft 504 kts 307°
2026-05-08 22:13 -8.02705 40.62639 31932 ft 505 kts 307°
2026-05-08 22:13 -7.98433 40.57045 31933 ft 504 kts 308°
2026-05-08 22:14 -7.94161 40.51455 31934 ft 504 kts 308°
2026-05-08 22:14 -7.89830 40.45920 31931 ft 503 kts 309°
2026-05-08 22:15 -7.85421 40.40383 31932 ft 504 kts 309°
2026-05-08 22:15 -7.81015 40.34846 31935 ft 504 kts 309°
2026-05-08 22:16 -7.76631 40.29333 31930 ft 504 kts 309°
2026-05-08 22:16 -7.72240 40.23812 31935 ft 504 kts 309°
2026-05-08 22:17 -7.67858 40.18304 31938 ft 504 kts 309°
2026-05-08 22:17 -7.63461 40.12777 31939 ft 503 kts 309°
2026-05-08 22:18 -7.59084 40.07278 31940 ft 504 kts 309°
2026-05-08 22:18 -7.54703 40.01775 31939 ft 503 kts 309°
2026-05-08 22:19 -7.50311 39.96261 31937 ft 504 kts 309°
2026-05-08 22:19 -7.45931 39.90762 31939 ft 503 kts 309°
2026-05-08 22:20 -7.41531 39.85241 31941 ft 505 kts 309°
2026-05-08 22:20 -7.37114 39.79701 31939 ft 505 kts 309°
2026-05-08 22:21 -7.32729 39.74202 31942 ft 504 kts 309°
2026-05-08 22:21 -7.28319 39.68675 31948 ft 504 kts 309°
2026-05-08 22:22 -7.23936 39.63182 31949 ft 505 kts 309°
2026-05-08 22:22 -7.19541 39.57677 31944 ft 506 kts 309°
2026-05-08 22:23 -7.15103 39.52120 31945 ft 507 kts 309°
2026-05-08 22:23 -7.10705 39.46614 31949 ft 507 kts 309°
2026-05-08 22:24 -7.06274 39.41070 31948 ft 507 kts 309°
2026-05-08 22:24 -7.01868 39.35559 31951 ft 507 kts 309°
2026-05-08 22:25 -6.97407 39.29980 31949 ft 507 kts 309°
2026-05-08 22:25 -6.93013 39.24488 31950 ft 507 kts 309°
2026-05-08 22:26 -6.88508 39.18983 31928 ft 505 kts 314°
2026-05-08 22:26 -6.83507 39.13997 31952 ft 506 kts 316°
2026-05-08 22:27 -6.78488 39.09067 31955 ft 504 kts 316°
2026-05-08 22:27 -6.73461 39.04127 31962 ft 505 kts 316°
2026-05-08 22:28 -6.68440 38.99191 31961 ft 506 kts 316°
2026-05-08 22:28 -6.63420 38.94257 31964 ft 506 kts 316°
2026-05-08 22:29 -6.58368 38.89292 31958 ft 505 kts 316°
2026-05-08 22:29 -6.53361 38.84373 31961 ft 504 kts 316°
2026-05-08 22:30 -6.48332 38.79433 31964 ft 504 kts 316°
2026-05-08 22:30 -6.43329 38.74519 31965 ft 503 kts 316°
2026-05-08 22:31 -6.38329 38.69611 31969 ft 504 kts 316°
2026-05-08 22:31 -6.33292 38.64668 31976 ft 504 kts 316°
2026-05-08 22:32 -6.28265 38.59735 31978 ft 505 kts 316°
2026-05-08 22:32 -6.23268 38.54833 31980 ft 503 kts 316°
2026-05-08 22:33 -6.18233 38.49896 31981 ft 503 kts 316°
2026-05-08 22:33 -6.13233 38.44989 31990 ft 504 kts 316°
2026-05-08 22:34 -6.08218 38.40064 31996 ft 504 kts 316°
2026-05-08 22:34 -6.03199 38.35136 31992 ft 503 kts 316°
2026-05-08 22:35 -5.98178 38.30209 31988 ft 503 kts 316°
2026-05-08 22:35 -5.93173 38.25298 31998 ft 503 kts 316°
2026-05-08 22:36 -5.88171 38.20393 32000 ft 503 kts 316°
2026-05-08 22:36 -5.83138 38.15458 32008 ft 503 kts 316°
2026-05-08 22:37 -5.78117 38.10535 32012 ft 503 kts 316°
2026-05-08 22:37 -5.73130 38.05648 32021 ft 502 kts 316°
2026-05-08 22:38 -5.68117 38.00732 32027 ft 502 kts 315°
2026-05-08 22:38 -5.63129 37.95789 32034 ft 502 kts 315°
2026-05-08 22:39 -5.58180 37.90884 32045 ft 502 kts 315°
2026-05-08 22:39 -5.53196 37.85947 32055 ft 503 kts 316°
2026-05-08 22:40 -5.48233 37.81034 32082 ft 500 kts 316°
2026-05-08 22:40 -5.43282 37.76133 32084 ft 501 kts 316°
2026-05-08 22:41 -5.38296 37.71200 32091 ft 500 kts 316°
2026-05-08 22:41 -5.33361 37.66319 32094 ft 500 kts 316°
2026-05-08 22:42 -5.28405 37.61417 32108 ft 499 kts 316°
2026-05-08 22:42 -5.23452 37.56520 32112 ft 499 kts 316°
2026-05-08 22:43 -5.18531 37.51656 32120 ft 499 kts 316°
2026-05-08 22:43 -5.13574 37.46757 32123 ft 499 kts 316°
2026-05-08 22:44 -5.08646 37.41888 32129 ft 498 kts 316°
2026-05-08 22:44 -5.03677 37.36981 32132 ft 498 kts 316°
2026-05-08 22:45 -4.98730 37.32095 32132 ft 498 kts 316°
2026-05-08 22:45 -4.93816 37.27244 32145 ft 497 kts 316°
2026-05-08 22:46 -4.88946 37.22436 32147 ft 497 kts 316°
2026-05-08 22:46 -4.83996 37.17551 32151 ft 497 kts 316°
2026-05-08 22:47 -4.79071 37.12691 32158 ft 497 kts 316°
2026-05-08 22:47 -4.74132 37.07819 32156 ft 498 kts 316°
2026-05-08 22:48 -4.69200 37.02956 32164 ft 498 kts 316°
2026-05-08 22:48 -4.64240 36.98064 32168 ft 498 kts 316°
2026-05-08 22:49 -4.59316 36.93210 32162 ft 498 kts 316°
2026-05-08 22:49 -4.51888 36.85888 32159 ft 498 kts 316°
2026-05-08 22:50 -4.46938 36.81000 32154 ft 498 kts 316°
2026-05-08 22:50 -4.42030 36.76141 32157 ft 498 kts 316°
2026-05-08 22:51 -4.37085 36.71247 32158 ft 497 kts 316°
2026-05-08 22:51 -4.32169 36.66383 32158 ft 497 kts 316°
2026-05-08 22:52 -4.27225 36.61492 32161 ft 498 kts 316°
2026-05-08 22:52 -4.22327 36.56647 32161 ft 497 kts 316°
2026-05-08 22:53 -4.17391 36.51767 32165 ft 495 kts 316°
2026-05-08 22:53 -4.12503 36.46936 32171 ft 495 kts 316°
2026-05-08 22:54 -4.07590 36.42079 32170 ft 494 kts 316°
2026-05-08 22:54 -4.02681 36.37228 32176 ft 495 kts 316°
2026-05-08 22:55 -3.97928 36.32531 32174 ft 494 kts 316°
2026-05-08 22:55 -3.92984 36.27745 32161 ft 491 kts 319°
2026-05-08 22:56 -3.87898 36.23203 32164 ft 492 kts 319°
2026-05-08 22:56 -3.82748 36.18595 32160 ft 490 kts 319°
2026-05-08 22:57 -3.77671 36.14041 32156 ft 491 kts 319°
2026-05-08 22:57 -3.72584 36.09472 32148 ft 491 kts 318°
2026-05-08 22:58 -3.67489 36.04891 32153 ft 491 kts 318°
2026-05-08 22:58 -3.62605 36.00166 32147 ft 490 kts 316°
2026-05-08 22:59 -3.57715 35.95382 32155 ft 491 kts 316°
2026-05-08 22:59 -3.52839 35.90626 32162 ft 491 kts 316°
2026-05-08 23:00 -3.47923 35.85838 32164 ft 491 kts 316°
2026-05-08 23:00 -3.43022 35.81070 32177 ft 491 kts 316°
2026-05-08 23:01 -3.38141 35.76324 32194 ft 490 kts 316°
2026-05-08 23:01 -3.33249 35.71570 32218 ft 490 kts 316°
2026-05-08 23:02 -3.28342 35.66801 32246 ft 490 kts 316°
2026-05-08 23:02 -3.23470 35.62068 32277 ft 489 kts 316°
2026-05-08 23:03 -3.18554 35.57293 32287 ft 490 kts 316°
2026-05-08 23:03 -3.13689 35.52569 32280 ft 489 kts 316°
2026-05-08 23:04 -3.08792 35.47813 32260 ft 489 kts 316°
2026-05-08 23:04 -3.03912 35.43075 32242 ft 489 kts 316°
2026-05-08 23:05 -2.98989 35.38296 32651 ft 495 kts 316°
2026-05-08 23:05 -2.96528 35.35907 33396 ft 489 kts 316°
2026-05-08 23:05 -2.94090 35.33541 34120 ft 484 kts 316°
2026-05-08 23:06 -2.91644 35.31166 34223 ft 485 kts 316°
2026-05-08 23:06 -2.89209 35.28804 34231 ft 482 kts 316°
2026-05-08 23:06 -2.84374 35.24114 34233 ft 480 kts 316°
2026-05-08 23:07 -2.79528 35.19414 34239 ft 481 kts 316°
2026-05-08 23:07 -2.74715 35.14744 34240 ft 480 kts 316°
2026-05-08 23:08 -2.69918 35.10091 34243 ft 480 kts 316°
2026-05-08 23:08 -2.65109 35.05428 34244 ft 481 kts 316°
2026-05-08 23:09 -2.60321 35.00784 34241 ft 480 kts 316°
2026-05-08 23:09 -2.55523 34.96131 34236 ft 479 kts 315°
2026-05-08 23:10 -2.50727 34.91481 34233 ft 480 kts 315°
2026-05-08 23:10 -2.45919 34.86820 34225 ft 480 kts 315°
2026-05-08 23:11 -2.41096 34.82144 34215 ft 479 kts 315°
2026-05-08 23:11 -2.36304 34.77500 34204 ft 479 kts 315°
2026-05-08 23:12 -2.31504 34.72848 34191 ft 479 kts 315°
2026-05-08 23:12 -2.26712 34.68204 34181 ft 479 kts 315°
2026-05-08 23:13 -2.21928 34.63568 34169 ft 478 kts 315°
2026-05-08 23:13 -2.17143 34.58932 34165 ft 478 kts 315°
2026-05-08 23:14 -2.12361 34.54299 34171 ft 479 kts 315°
2026-05-08 23:14 -2.07572 34.49660 34166 ft 480 kts 315°
2026-05-08 23:15 -2.02762 34.45001 34163 ft 479 kts 315°
2026-05-08 23:15 -1.97974 34.40366 34161 ft 479 kts 315°
2026-05-08 23:16 -1.93175 34.35725 34158 ft 479 kts 315°
2026-05-08 23:16 -1.88362 34.31070 34162 ft 479 kts 315°
2026-05-08 23:17 -1.83560 34.26427 34167 ft 479 kts 315°
2026-05-08 23:17 -1.78789 34.21812 34169 ft 480 kts 315°
2026-05-08 23:18 -1.73979 34.17157 34180 ft 480 kts 315°
2026-05-08 23:18 -1.69165 34.12500 34169 ft 480 kts 315°
2026-05-08 23:19 -1.64390 34.07880 34160 ft 480 kts 315°
2026-05-08 23:19 -1.59592 34.03240 34145 ft 479 kts 315°
2026-05-08 23:20 -1.54772 33.98594 34129 ft 480 kts 315°
2026-05-08 23:20 -1.49948 33.93955 34108 ft 481 kts 315°
2026-05-08 23:21 -1.45134 33.89324 34104 ft 480 kts 315°
2026-05-08 23:21 -1.40325 33.84677 34101 ft 480 kts 315°
2026-05-08 23:22 -1.35513 33.79985 34097 ft 481 kts 315°
2026-05-08 23:22 -1.30712 33.75311 34092 ft 483 kts 315°
2026-05-08 23:23 -1.25882 33.70636 34088 ft 484 kts 315°
2026-05-08 23:23 -1.21049 33.65957 34087 ft 484 kts 315°
2026-05-08 23:24 -1.16195 33.61258 34087 ft 484 kts 315°
2026-05-08 23:24 -1.11353 33.56571 34086 ft 484 kts 315°
2026-05-08 23:25 -1.06513 33.51887 34088 ft 485 kts 315°
2026-05-08 23:25 -1.01688 33.47216 34087 ft 485 kts 315°
2026-05-08 23:26 -0.96824 33.42520 34088 ft 486 kts 315°
2026-05-08 23:26 -0.91962 33.37840 34088 ft 485 kts 315°
2026-05-08 23:27 -0.87065 33.33125 34088 ft 486 kts 315°
2026-05-08 23:27 -0.82117 33.28360 34088 ft 485 kts 315°
2026-05-08 23:28 -0.77230 33.23655 34088 ft 486 kts 315°
2026-05-08 23:28 -0.72365 33.18969 34087 ft 486 kts 315°
2026-05-08 23:29 -0.67480 33.14247 34087 ft 486 kts 315°
2026-05-08 23:29 -0.62627 33.09544 34092 ft 486 kts 315°
2026-05-08 23:30 -0.57785 33.04854 34091 ft 485 kts 315°
2026-05-08 23:30 -0.52932 33.00154 34091 ft 485 kts 315°
2026-05-08 23:31 -0.48090 32.95464 34091 ft 485 kts 315°
2026-05-08 23:31 -0.43244 32.90771 34093 ft 484 kts 315°
2026-05-08 23:32 -0.38429 32.86108 34089 ft 483 kts 315°
2026-05-08 23:32 -0.33611 32.81443 34082 ft 482 kts 315°
2026-05-08 23:33 -0.28787 32.76771 34081 ft 482 kts 315°
2026-05-08 23:33 -0.23961 32.72098 34080 ft 484 kts 315°
2026-05-08 23:34 -0.19124 32.67415 34084 ft 483 kts 315°
2026-05-08 23:34 -0.14300 32.62743 34076 ft 482 kts 315°
2026-05-08 23:35 -0.09484 32.58080 34080 ft 482 kts 315°
2026-05-08 23:35 -0.04656 32.53405 34074 ft 482 kts 315°
2026-05-08 23:36 0.00186 32.48717 34082 ft 483 kts 315°
2026-05-08 23:36 0.04923 32.44000 34099 ft 483 kts 309°
2026-05-08 23:37 0.08839 32.38556 34092 ft 483 kts 303°
2026-05-08 23:37 0.12614 32.33028 34097 ft 482 kts 303°
2026-05-08 23:38 0.16415 32.27458 34098 ft 483 kts 303°
2026-05-08 23:38 0.20186 32.21931 34096 ft 484 kts 303°
2026-05-08 23:39 0.23994 32.16347 34097 ft 484 kts 303°
2026-05-08 23:39 0.27767 32.10818 34099 ft 484 kts 303°
2026-05-08 23:40 0.31570 32.05241 34099 ft 484 kts 304°
2026-05-08 23:40 0.35340 31.99703 34101 ft 483 kts 303°
2026-05-08 23:41 0.39114 31.94145 34099 ft 484 kts 303°
2026-05-08 23:41 0.42903 31.88566 34098 ft 486 kts 303°
2026-05-08 23:42 0.46685 31.82998 34106 ft 484 kts 303°
2026-05-08 23:42 0.50469 31.77427 34106 ft 484 kts 303°
2026-05-08 23:43 0.54248 31.71862 34104 ft 485 kts 303°
2026-05-08 23:43 0.58043 31.66275 34106 ft 486 kts 303°
2026-05-08 23:44 0.61838 31.60687 34113 ft 485 kts 303°
2026-05-08 23:44 0.65626 31.55110 34117 ft 483 kts 303°
2026-05-08 23:45 0.69410 31.49560 34129 ft 484 kts 303°
2026-05-08 23:45 0.73212 31.43995 34125 ft 484 kts 303°
2026-05-08 23:46 0.76991 31.38462 34120 ft 485 kts 303°
2026-05-08 23:46 0.80829 31.32842 34111 ft 486 kts 303°
2026-05-08 23:47 0.84445 31.27548 34097 ft 486 kts 303°
2026-05-08 23:47 0.88238 31.21992 34089 ft 487 kts 303°
2026-05-08 23:48 0.92054 31.16404 34083 ft 486 kts 303°
2026-05-08 23:48 0.95862 31.10827 34080 ft 485 kts 303°
2026-05-08 23:49 0.99666 31.05255 34075 ft 486 kts 303°
2026-05-08 23:49 1.03468 30.99686 34071 ft 487 kts 303°
2026-05-08 23:50 1.07291 30.94085 34069 ft 487 kts 303°
2026-05-08 23:50 1.11135 30.88454 34061 ft 488 kts 303°
2026-05-08 23:51 1.14985 30.82814 34052 ft 487 kts 303°
2026-05-08 23:51 1.18797 30.77228 34046 ft 488 kts 303°
2026-05-08 23:52 1.22625 30.71620 34041 ft 487 kts 303°
2026-05-08 23:52 1.26423 30.66055 34032 ft 487 kts 303°
2026-05-08 23:53 1.30284 30.60499 34028 ft 487 kts 304°
2026-05-08 23:53 1.34169 30.54955 34018 ft 487 kts 304°
2026-05-08 23:54 1.38049 30.49414 34016 ft 487 kts 304°
2026-05-08 23:55 1.43876 30.41086 34037 ft 487 kts 304°
2026-05-08 23:55 1.47763 30.35530 34046 ft 487 kts 304°
2026-05-08 23:56 1.51567 30.30091 34066 ft 487 kts 304°
2026-05-08 23:56 1.55448 30.24538 34102 ft 486 kts 303°
2026-05-08 23:57 1.58608 30.18560 34099 ft 486 kts 294°
2026-05-08 23:57 1.61459 30.12451 34078 ft 485 kts 294°
2026-05-08 23:58 1.64288 30.06381 34067 ft 486 kts 294°
2026-05-08 23:58 1.67157 30.00227 34055 ft 487 kts 294°
2026-05-08 23:59 1.70020 29.94084 34054 ft 487 kts 294°
2026-05-08 23:59 1.72855 29.88000 34051 ft 486 kts 294°
2026-05-09 00:00 1.75706 29.81883 34052 ft 486 kts 294°
2026-05-09 00:00 1.78602 29.75783 34052 ft 486 kts 295°
2026-05-09 00:01 1.81597 29.69719 34056 ft 486 kts 295°
2026-05-09 00:01 1.84582 29.63666 34052 ft 487 kts 295°
2026-05-09 00:02 1.87579 29.57580 34047 ft 487 kts 295°
2026-05-09 00:02 1.90568 29.51504 34051 ft 487 kts 295°
2026-05-09 00:03 1.93535 29.45406 34050 ft 487 kts 294°
2026-05-09 00:03 1.96405 29.39321 34046 ft 487 kts 294°
2026-05-09 00:04 1.99304 29.33177 34045 ft 486 kts 294°
2026-05-09 00:04 2.02202 29.27040 34043 ft 486 kts 294°
2026-05-09 00:05 2.05084 29.20941 34041 ft 486 kts 294°
2026-05-09 00:05 2.07953 29.14868 34041 ft 486 kts 294°
2026-05-09 00:06 2.10849 29.08740 34039 ft 486 kts 294°
2026-05-09 00:06 2.13765 29.02570 34040 ft 486 kts 294°
2026-05-09 00:07 2.16633 28.96498 34035 ft 486 kts 294°
2026-05-09 00:07 2.19505 28.90419 34029 ft 485 kts 294°
2026-05-09 00:08 2.22410 28.84270 34026 ft 486 kts 294°
2026-05-09 00:08 2.25285 28.78184 34036 ft 485 kts 294°
2026-05-09 00:09 2.28166 28.72083 34040 ft 486 kts 294°
2026-05-09 00:09 2.31047 28.65982 34041 ft 486 kts 294°
2026-05-09 00:10 2.33915 28.59907 34041 ft 485 kts 294°
2026-05-09 00:10 2.36802 28.53792 34038 ft 484 kts 294°
2026-05-09 00:11 2.39697 28.47659 34039 ft 483 kts 294°
2026-05-09 00:11 2.42557 28.41599 34034 ft 482 kts 294°
2026-05-09 00:12 2.45418 28.35536 34036 ft 482 kts 294°
2026-05-09 00:12 2.48293 28.29444 34035 ft 482 kts 294°
2026-05-09 00:13 2.51141 28.23407 34035 ft 481 kts 294°
2026-05-09 00:13 2.54027 28.17332 34030 ft 483 kts 294°
2026-05-09 00:14 2.56901 28.11316 34032 ft 483 kts 294°
2026-05-09 00:14 2.59793 28.05260 34029 ft 480 kts 294°
2026-05-09 00:15 2.62666 27.99244 34029 ft 480 kts 294°
2026-05-09 00:15 2.65547 27.93206 34033 ft 481 kts 294°
2026-05-09 00:16 2.68415 27.87194 34030 ft 481 kts 294°
2026-05-09 00:16 2.71295 27.81157 34030 ft 482 kts 294°
2026-05-09 00:17 2.74177 27.75114 34032 ft 481 kts 294°
2026-05-09 00:17 2.77052 27.69086 34025 ft 480 kts 294°
2026-05-09 00:18 2.79912 27.63088 34027 ft 479 kts 294°
2026-05-09 00:18 2.83357 27.57400 34023 ft 479 kts 306°
2026-05-09 00:19 2.87358 27.52059 34027 ft 479 kts 306°
2026-05-09 00:19 2.91356 27.46729 34027 ft 478 kts 306°
2026-05-09 00:20 2.95357 27.41390 34030 ft 478 kts 306°
2026-05-09 00:20 2.99332 27.36083 34028 ft 479 kts 306°
2026-05-09 00:21 3.03351 27.30715 34028 ft 479 kts 306°
2026-05-09 00:21 3.07346 27.25378 34026 ft 479 kts 306°
2026-05-09 00:22 3.11346 27.20032 34019 ft 478 kts 306°
2026-05-09 00:22 3.15346 27.14686 34010 ft 477 kts 306°
2026-05-09 00:23 3.19329 27.09362 34004 ft 476 kts 306°
2026-05-09 00:23 3.23292 27.04063 34005 ft 477 kts 306°
2026-05-09 00:24 3.27253 26.98766 34002 ft 475 kts 306°
2026-05-09 00:24 3.31222 26.93459 34001 ft 476 kts 306°
2026-05-09 00:25 3.35187 26.88155 34002 ft 475 kts 306°
2026-05-09 00:25 3.39135 26.82874 34006 ft 475 kts 306°
2026-05-09 00:26 3.43092 26.77579 34007 ft 472 kts 306°
2026-05-09 00:26 3.47024 26.72318 34007 ft 473 kts 306°
2026-05-09 00:27 3.50966 26.67041 34005 ft 472 kts 307°
2026-05-09 00:27 3.54907 26.61765 34004 ft 473 kts 307°
2026-05-09 00:28 3.58852 26.56484 34007 ft 473 kts 307°
2026-05-09 00:28 3.62798 26.51199 34005 ft 473 kts 307°
2026-05-09 00:29 3.66738 26.45924 34006 ft 473 kts 307°
2026-05-09 00:29 3.70679 26.40645 34005 ft 475 kts 307°
2026-05-09 00:30 3.74658 26.35313 34000 ft 475 kts 307°
2026-05-09 00:30 3.78638 26.29980 33999 ft 475 kts 307°
2026-05-09 00:31 3.82594 26.24679 34002 ft 475 kts 307°
2026-05-09 00:31 3.86552 26.19373 34002 ft 476 kts 307°
2026-05-09 00:32 3.90522 26.14051 34000 ft 477 kts 307°
2026-05-09 00:32 3.94503 26.08712 34009 ft 478 kts 308°
2026-05-09 00:33 3.98477 26.03383 34020 ft 478 kts 308°
2026-05-09 00:33 4.02462 25.98037 34012 ft 478 kts 307°
2026-05-09 00:34 4.06434 25.92708 34010 ft 477 kts 308°
2026-05-09 00:34 4.10413 25.87370 33999 ft 479 kts 308°
2026-05-09 00:35 4.14318 25.82127 34008 ft 480 kts 307°
2026-05-09 00:35 4.18314 25.76763 34005 ft 482 kts 308°
2026-05-09 00:36 4.22343 25.71353 34000 ft 482 kts 307°
2026-05-09 00:36 4.26364 25.65952 34001 ft 483 kts 307°
2026-05-09 00:37 4.30357 25.60589 33996 ft 482 kts 307°
2026-05-09 00:37 4.34398 25.55161 33998 ft 485 kts 307°
2026-05-09 00:38 4.38416 25.49761 33998 ft 485 kts 307°
2026-05-09 00:38 4.42439 25.44355 33999 ft 485 kts 307°
2026-05-09 00:39 4.46477 25.38926 33999 ft 487 kts 307°
2026-05-09 00:39 4.50363 25.33701 34000 ft 487 kts 307°
2026-05-09 00:40 4.54416 25.28251 33996 ft 487 kts 307°
2026-05-09 00:40 4.58490 25.22770 33993 ft 489 kts 307°
2026-05-09 00:41 4.64579 25.14577 33982 ft 490 kts 307°
2026-05-09 00:41 4.68660 25.09086 33979 ft 490 kts 307°
2026-05-09 00:42 4.72738 25.03597 33974 ft 491 kts 307°
2026-05-09 00:42 4.76823 24.98095 33978 ft 491 kts 307°
2026-05-09 00:43 4.80896 24.92610 33977 ft 491 kts 307°
2026-05-09 00:43 4.84949 24.87150 33970 ft 490 kts 307°
2026-05-09 00:44 4.89032 24.81650 33978 ft 493 kts 307°
2026-05-09 00:44 4.93121 24.76139 33975 ft 492 kts 306°
2026-05-09 00:45 4.97191 24.70646 33974 ft 490 kts 306°
2026-05-09 00:45 5.01271 24.65138 33979 ft 491 kts 306°
2026-05-09 00:46 5.05332 24.59653 33980 ft 490 kts 307°
2026-05-09 00:46 5.09394 24.54165 33984 ft 489 kts 307°
2026-05-09 00:47 5.13461 24.48669 33979 ft 489 kts 306°
2026-05-09 00:47 5.17526 24.43177 33982 ft 489 kts 306°
2026-05-09 00:48 5.21575 24.37711 33981 ft 488 kts 306°
2026-05-09 00:48 5.25659 24.32197 33978 ft 488 kts 306°
2026-05-09 00:49 5.29697 24.26741 33973 ft 487 kts 306°
2026-05-09 00:49 5.33727 24.21297 33968 ft 487 kts 306°
2026-05-09 00:50 5.37765 24.15840 33965 ft 487 kts 306°
2026-05-09 00:50 5.41818 24.10360 33968 ft 486 kts 306°
2026-05-09 00:51 5.45843 24.04918 33962 ft 485 kts 306°
2026-05-09 00:51 5.49842 23.99509 33959 ft 484 kts 306°
2026-05-09 00:52 5.53857 23.94077 33958 ft 485 kts 306°
2026-05-09 00:52 5.57885 23.88626 33953 ft 485 kts 306°
2026-05-09 00:53 5.61896 23.83197 33954 ft 485 kts 306°
2026-05-09 00:53 5.65914 23.77757 33953 ft 486 kts 306°
2026-05-09 00:54 5.69963 23.72367 33954 ft 484 kts 307°
2026-05-09 00:54 5.74036 23.66991 33951 ft 481 kts 307°
2026-05-09 00:55 5.78082 23.61644 33950 ft 481 kts 307°
2026-05-09 00:55 5.82144 23.56272 33946 ft 481 kts 307°
2026-05-09 00:56 5.86159 23.50958 33947 ft 481 kts 307°
2026-05-09 00:56 5.90205 23.45602 33948 ft 480 kts 307°
2026-05-09 00:57 5.94243 23.40256 33947 ft 481 kts 306°
2026-05-09 00:57 5.98339 23.34829 33944 ft 483 kts 306°
2026-05-09 00:58 6.02387 23.29465 33943 ft 481 kts 306°
2026-05-09 00:58 6.06446 23.24085 33946 ft 481 kts 306°
2026-05-09 00:59 6.10461 23.18761 33945 ft 481 kts 306°
2026-05-09 00:59 6.14504 23.13399 33945 ft 480 kts 306°
2026-05-09 01:00 6.18547 23.08036 33950 ft 480 kts 306°
2026-05-09 01:00 6.22576 23.02690 33952 ft 480 kts 306°
2026-05-09 01:01 6.26606 22.97340 33956 ft 481 kts 306°
2026-05-09 01:01 6.30643 22.91979 33963 ft 481 kts 306°
2026-05-09 01:02 6.34673 22.86628 33965 ft 480 kts 306°
2026-05-09 01:02 6.38711 22.81262 33966 ft 479 kts 306°
2026-05-09 01:03 6.42734 22.75917 33967 ft 479 kts 306°
2026-05-09 01:03 6.46757 22.70570 33967 ft 478 kts 306°
2026-05-09 01:04 6.50745 22.65266 33968 ft 479 kts 306°
2026-05-09 01:04 6.54774 22.59907 33970 ft 480 kts 306°
2026-05-09 01:05 6.58797 22.54555 33971 ft 479 kts 306°
2026-05-09 01:06 6.64831 22.46524 33970 ft 478 kts 306°
2026-05-09 01:06 6.68837 22.41189 33971 ft 479 kts 306°
2026-05-09 01:07 6.72847 22.35849 33972 ft 479 kts 306°
2026-05-09 01:07 6.76849 22.30517 33972 ft 478 kts 306°
2026-05-09 01:08 6.80765 22.25296 33973 ft 479 kts 306°
2026-05-09 01:08 6.84776 22.19949 33974 ft 479 kts 306°
2026-05-09 01:09 6.88787 22.14600 33973 ft 478 kts 306°
2026-05-09 01:09 6.92782 22.09272 33974 ft 477 kts 306°
2026-05-09 01:10 6.96802 22.03907 33974 ft 477 kts 306°
2026-05-09 01:10 7.00793 21.98578 33974 ft 478 kts 306°
2026-05-09 01:11 7.04823 21.93198 33973 ft 478 kts 306°
2026-05-09 01:11 7.08822 21.87856 33970 ft 478 kts 306°
2026-05-09 01:12 7.12848 21.82477 33967 ft 477 kts 306°
2026-05-09 01:12 7.16834 21.77148 33968 ft 476 kts 306°
2026-05-09 01:13 7.20814 21.71827 33960 ft 476 kts 306°
2026-05-09 01:13 7.24791 21.66508 33957 ft 475 kts 306°
2026-05-09 01:14 7.28769 21.61184 33955 ft 476 kts 306°
2026-05-09 01:14 7.32730 21.55883 33958 ft 476 kts 307°
2026-05-09 01:15 7.36723 21.50537 33959 ft 477 kts 307°
2026-05-09 01:15 7.40729 21.45172 33960 ft 477 kts 307°
2026-05-09 01:16 7.44758 21.39773 33961 ft 478 kts 307°
2026-05-09 01:16 7.48730 21.34450 33964 ft 477 kts 307°
2026-05-09 01:17 7.54740 21.26392 33965 ft 479 kts 307°
2026-05-09 01:17 7.58730 21.21039 33968 ft 478 kts 307°
2026-05-09 01:18 7.62719 21.15687 33968 ft 478 kts 307°
2026-05-09 01:18 7.66695 21.10349 33966 ft 477 kts 307°
2026-05-09 01:19 7.70686 21.04990 33964 ft 478 kts 307°
2026-05-09 01:19 7.74674 20.99633 33958 ft 478 kts 307°
2026-05-09 01:20 7.78683 20.94245 33952 ft 479 kts 307°
2026-05-09 01:20 7.82672 20.88883 33941 ft 479 kts 307°
2026-05-09 01:21 7.86657 20.83525 33939 ft 478 kts 307°
2026-05-09 01:21 7.90644 20.78160 33939 ft 478 kts 307°
2026-05-09 01:22 7.94644 20.72777 33939 ft 479 kts 307°
2026-05-09 01:22 7.98632 20.67409 33935 ft 479 kts 307°
2026-05-09 01:23 8.02677 20.62082 33922 ft 480 kts 309°
2026-05-09 01:23 8.06814 20.56792 33916 ft 480 kts 309°
2026-05-09 01:24 8.10930 20.51519 33913 ft 479 kts 309°
2026-05-09 01:24 8.15083 20.46190 33912 ft 478 kts 309°
2026-05-09 01:25 8.19208 20.40892 33910 ft 479 kts 309°
2026-05-09 01:25 8.23337 20.35584 33905 ft 479 kts 309°
2026-05-09 01:26 8.27464 20.30276 33899 ft 478 kts 308°
2026-05-09 01:26 8.31568 20.24997 33898 ft 479 kts 309°
2026-05-09 01:27 8.35676 20.19708 33895 ft 478 kts 309°
2026-05-09 01:27 8.39770 20.14436 33897 ft 478 kts 309°
2026-05-09 01:28 8.43874 20.09150 33893 ft 478 kts 309°
2026-05-09 01:28 8.47969 20.03871 33890 ft 477 kts 309°
2026-05-09 01:29 8.52068 19.98587 33883 ft 478 kts 309°
2026-05-09 01:29 8.56164 19.93304 33877 ft 479 kts 309°
2026-05-09 01:30 8.60280 19.87994 33875 ft 478 kts 309°
2026-05-09 01:30 8.64370 19.82715 33874 ft 478 kts 309°
2026-05-09 01:31 8.68468 19.77422 33873 ft 478 kts 309°
2026-05-09 01:31 8.72555 19.72142 33869 ft 477 kts 309°
2026-05-09 01:32 8.76650 19.66851 33865 ft 478 kts 309°
2026-05-09 01:32 8.80745 19.61556 33863 ft 477 kts 309°
2026-05-09 01:33 8.84823 19.56282 33862 ft 478 kts 309°
2026-05-09 01:33 8.88902 19.51005 33860 ft 477 kts 309°
2026-05-09 01:34 8.92989 19.45714 33861 ft 477 kts 309°
2026-05-09 01:34 8.97068 19.40432 33860 ft 477 kts 309°
2026-05-09 01:35 9.01160 19.35131 33867 ft 477 kts 309°
2026-05-09 01:35 9.05256 19.29823 33868 ft 477 kts 309°
2026-05-09 01:36 9.09337 19.24532 33869 ft 478 kts 309°
2026-05-09 01:36 9.13436 19.19215 33881 ft 478 kts 309°
2026-05-09 01:37 9.17503 19.13938 33875 ft 477 kts 309°
2026-05-09 01:37 9.21610 19.08606 33858 ft 477 kts 309°
2026-05-09 01:38 9.25685 19.03314 33858 ft 478 kts 309°
2026-05-09 01:38 9.29765 18.98013 33865 ft 478 kts 309°
2026-05-09 01:39 9.33844 18.92712 33864 ft 478 kts 309°
2026-05-09 01:39 9.37915 18.87417 33861 ft 478 kts 309°
2026-05-09 01:40 9.42005 18.82096 33866 ft 477 kts 309°
2026-05-09 01:40 9.46075 18.76799 33864 ft 476 kts 309°
2026-05-09 01:41 9.50146 18.71499 33876 ft 478 kts 309°
2026-05-09 01:41 9.54230 18.66179 33872 ft 478 kts 309°
2026-05-09 01:42 9.58299 18.60876 33867 ft 477 kts 309°
2026-05-09 01:42 9.62385 18.55548 33863 ft 477 kts 309°
2026-05-09 01:43 9.66443 18.50254 33864 ft 476 kts 309°
2026-05-09 01:43 9.70509 18.44948 33860 ft 476 kts 309°
2026-05-09 01:44 9.74559 18.39661 33861 ft 477 kts 309°
2026-05-09 01:44 9.78627 18.34347 33862 ft 477 kts 309°
2026-05-09 01:45 9.82701 18.29024 33857 ft 477 kts 309°
2026-05-09 01:45 9.86779 18.23692 33858 ft 477 kts 309°
2026-05-09 01:46 9.90842 18.18378 33849 ft 476 kts 309°
2026-05-09 01:46 9.94895 18.13073 33840 ft 475 kts 309°
2026-05-09 01:47 9.98954 18.07761 33840 ft 476 kts 309°
2026-05-09 01:47 10.03006 18.02453 33843 ft 475 kts 309°
2026-05-09 01:48 10.07048 17.97157 33843 ft 476 kts 309°
2026-05-09 01:48 10.11083 17.91867 33851 ft 475 kts 309°
2026-05-09 01:49 10.15136 17.86552 33856 ft 475 kts 309°
2026-05-09 01:49 10.19191 17.81230 33864 ft 474 kts 309°
2026-05-09 01:50 10.23221 17.75940 33862 ft 474 kts 309°
2026-05-09 01:50 10.27247 17.70653 33860 ft 474 kts 309°
2026-05-09 01:51 10.31276 17.65358 33863 ft 473 kts 309°
2026-05-09 01:51 10.35295 17.60075 33859 ft 473 kts 309°
2026-05-09 01:52 10.39314 17.54788 33862 ft 473 kts 309°
2026-05-09 01:52 10.43325 17.49511 33859 ft 472 kts 310°
2026-05-09 01:53 10.47336 17.44231 33858 ft 472 kts 310°
2026-05-09 01:53 10.51340 17.38957 33857 ft 472 kts 309°
2026-05-09 01:54 10.55358 17.33662 33855 ft 471 kts 309°
2026-05-09 01:54 10.59374 17.28368 33853 ft 471 kts 309°
2026-05-09 01:55 10.63357 17.23115 33855 ft 472 kts 309°
2026-05-09 01:55 10.67357 17.17837 33850 ft 470 kts 310°
2026-05-09 01:56 10.71369 17.12540 33851 ft 472 kts 309°
2026-05-09 01:56 10.75164 17.07089 33851 ft 472 kts 307°
2026-05-09 01:57 10.78913 17.01620 33844 ft 472 kts 307°
2026-05-09 01:57 10.82670 16.96155 33844 ft 472 kts 307°
2026-05-09 01:58 10.86457 16.90654 33853 ft 472 kts 307°
2026-05-09 01:58 10.90190 16.85234 33862 ft 470 kts 307°
2026-05-09 01:59 10.93958 16.79764 33866 ft 472 kts 307°
2026-05-09 01:59 10.97718 16.74303 33865 ft 472 kts 307°
2026-05-09 02:00 11.01509 16.68795 33866 ft 473 kts 307°
2026-05-09 02:00 11.05282 16.63311 33865 ft 474 kts 307°
2026-05-09 02:01 11.09055 16.57825 33867 ft 472 kts 307°
2026-05-09 02:01 11.12826 16.52338 33874 ft 473 kts 307°
2026-05-09 02:02 11.16597 16.46849 33867 ft 473 kts 307°
2026-05-09 02:02 11.20362 16.41366 33863 ft 474 kts 307°
2026-05-09 02:03 11.24133 16.35870 33865 ft 475 kts 307°
2026-05-09 02:03 11.27877 16.30412 33862 ft 474 kts 307°
2026-05-09 02:04 11.31650 16.24908 33860 ft 473 kts 307°
2026-05-09 02:04 11.35405 16.19428 33855 ft 473 kts 307°
2026-05-09 02:05 11.39171 16.13929 33853 ft 473 kts 307°
2026-05-09 02:05 11.42952 16.08405 33850 ft 474 kts 307°
2026-05-09 02:06 11.46716 16.02903 33849 ft 473 kts 307°
2026-05-09 02:07 11.52347 15.94666 33849 ft 472 kts 307°
2026-05-09 02:07 11.56107 15.89162 33849 ft 473 kts 307°
2026-05-09 02:08 11.59862 15.83662 33849 ft 472 kts 307°
2026-05-09 02:08 11.63607 15.78174 33849 ft 472 kts 307°
2026-05-09 02:09 11.67347 15.72691 33852 ft 470 kts 307°
2026-05-09 02:09 11.71087 15.67205 33857 ft 471 kts 307°
2026-05-09 02:10 11.74821 15.61725 33862 ft 470 kts 307°
2026-05-09 02:10 11.78539 15.56264 33865 ft 469 kts 307°
2026-05-09 02:11 11.82278 15.50771 33866 ft 468 kts 307°
2026-05-09 02:11 11.86011 15.45283 33862 ft 469 kts 307°
2026-05-09 02:12 11.89713 15.39836 33859 ft 468 kts 307°
2026-05-09 02:12 11.93435 15.34359 33860 ft 470 kts 307°
2026-05-09 02:13 11.97132 15.28913 33857 ft 467 kts 307°
2026-05-09 02:13 12.00836 15.23456 33856 ft 466 kts 306°
2026-05-09 02:14 12.04545 15.17988 33853 ft 465 kts 306°
2026-05-09 02:14 12.08219 15.12568 33845 ft 466 kts 306°
2026-05-09 02:15 12.12021 15.07441 33829 ft 463 kts 315°
2026-05-09 02:15 12.17048 15.03402 33826 ft 458 kts 331°
2026-05-09 02:16 12.22942 15.00965 33846 ft 455 kts 344°
2026-05-09 02:16 12.29067 14.99162 33858 ft 455 kts 344°
2026-05-09 02:17 12.35145 14.97345 33856 ft 455 kts 343°
2026-05-09 02:17 12.41241 14.95502 33849 ft 455 kts 343°
2026-05-09 02:18 12.47321 14.93652 33845 ft 454 kts 343°
2026-05-09 02:18 12.53362 14.91807 33848 ft 454 kts 343°
2026-05-09 02:19 12.59423 14.89953 33848 ft 454 kts 343°
2026-05-09 02:19 12.65501 14.88091 33849 ft 454 kts 343°
2026-05-09 02:20 12.71598 14.86221 33853 ft 454 kts 343°
2026-05-09 02:20 12.77637 14.84368 33864 ft 452 kts 343°
2026-05-09 02:21 12.83656 14.82520 33868 ft 452 kts 343°
2026-05-09 02:21 12.89694 14.80665 33861 ft 451 kts 343°
2026-05-09 02:22 12.95738 14.78807 33860 ft 452 kts 343°
2026-05-09 02:22 13.01795 14.76944 33861 ft 452 kts 343°
2026-05-09 02:23 13.07832 14.75087 33855 ft 452 kts 343°
2026-05-09 02:23 13.13863 14.73230 33863 ft 451 kts 343°
2026-05-09 02:24 13.19895 14.71372 33861 ft 452 kts 343°
2026-05-09 02:24 13.25926 14.69513 33864 ft 452 kts 343°
2026-05-09 02:25 13.31970 14.67650 33866 ft 451 kts 343°
2026-05-09 02:25 13.37972 14.65798 33864 ft 449 kts 343°
2026-05-09 02:26 13.43966 14.63948 33861 ft 450 kts 343°
2026-05-09 02:26 13.49983 14.62090 33859 ft 449 kts 343°
2026-05-09 02:27 13.55962 14.60243 33863 ft 451 kts 343°
2026-05-09 02:27 13.62017 14.58371 33863 ft 451 kts 343°
2026-05-09 02:28 13.68001 14.56520 33866 ft 450 kts 343°
2026-05-09 02:28 13.73996 14.54664 33866 ft 449 kts 343°
2026-05-09 02:29 13.79991 14.52808 33866 ft 449 kts 342°
2026-05-09 02:29 13.86016 14.50942 33865 ft 450 kts 342°
2026-05-09 02:30 13.92020 14.49080 33868 ft 450 kts 342°
2026-05-09 02:30 13.98019 14.47220 33866 ft 449 kts 342°
2026-05-09 02:31 14.03968 14.45374 33867 ft 448 kts 342°
2026-05-09 02:31 14.09963 14.43513 33875 ft 448 kts 342°
2026-05-09 02:32 14.16006 14.41635 33890 ft 448 kts 342°
2026-05-09 02:32 14.21987 14.39776 33891 ft 449 kts 342°
2026-05-09 02:33 14.27984 14.37911 33891 ft 449 kts 342°
2026-05-09 02:33 14.33981 14.36045 33892 ft 449 kts 342°
2026-05-09 02:34 14.39974 14.34179 33897 ft 450 kts 342°
2026-05-09 02:34 14.46016 14.32297 33896 ft 450 kts 342°
2026-05-09 02:35 14.52020 14.30425 33902 ft 450 kts 342°
2026-05-09 02:35 14.58054 14.28544 33908 ft 450 kts 342°
2026-05-09 02:36 14.64066 14.26668 33904 ft 451 kts 342°
2026-05-09 02:36 14.70068 14.24794 33898 ft 450 kts 342°
2026-05-09 02:37 14.76064 14.22921 33892 ft 450 kts 342°
2026-05-09 02:37 14.82084 14.21039 33893 ft 451 kts 342°
2026-05-09 02:38 14.88093 14.19159 33897 ft 450 kts 342°
2026-05-09 02:38 14.94111 14.17276 33892 ft 451 kts 342°
2026-05-09 02:39 15.00139 14.15388 33900 ft 450 kts 342°
2026-05-09 02:39 15.06113 14.13517 33895 ft 450 kts 342°
2026-05-09 02:40 15.12147 14.11625 33908 ft 450 kts 342°
2026-05-09 02:40 15.18171 14.09736 33905 ft 450 kts 342°
2026-05-09 02:41 15.24184 14.07848 33909 ft 450 kts 342°
2026-05-09 02:41 15.30185 14.05963 33913 ft 450 kts 342°
2026-05-09 02:42 15.36217 14.04068 33918 ft 448 kts 342°
2026-05-09 02:42 15.42204 14.02186 33929 ft 448 kts 342°
2026-05-09 02:43 15.48154 14.00314 33929 ft 449 kts 342°
2026-05-09 02:43 15.54134 13.98431 33924 ft 450 kts 342°
2026-05-09 02:44 15.60126 13.96544 33925 ft 448 kts 342°
2026-05-09 02:44 15.66098 13.94661 33924 ft 448 kts 342°
2026-05-09 02:45 15.72079 13.92775 33920 ft 447 kts 342°
2026-05-09 02:45 15.78046 13.90892 33919 ft 445 kts 342°
2026-05-09 02:46 15.84007 13.89010 33917 ft 447 kts 342°
2026-05-09 02:46 15.89967 13.87126 33916 ft 447 kts 341°
2026-05-09 02:47 15.95917 13.85245 33914 ft 447 kts 341°
2026-05-09 02:47 16.01870 13.83362 33913 ft 446 kts 341°
2026-05-09 02:48 16.07814 13.81480 33913 ft 446 kts 341°
2026-05-09 02:48 16.13793 13.79586 33921 ft 446 kts 341°
2026-05-09 02:49 16.19747 13.77699 33920 ft 446 kts 341°
2026-05-09 02:49 16.25723 13.75804 33919 ft 447 kts 341°
2026-05-09 02:50 16.31687 13.73911 33918 ft 446 kts 341°
2026-05-09 02:50 16.37593 13.72035 33919 ft 445 kts 341°
2026-05-09 02:51 16.43538 13.70146 33919 ft 445 kts 341°
2026-05-09 02:51 16.49483 13.68256 33919 ft 448 kts 341°
2026-05-09 02:52 16.55450 13.66357 33920 ft 447 kts 341°
2026-05-09 02:52 16.61432 13.64452 34097 ft 454 kts 341°
2026-05-09 02:52 16.64466 13.63486 34771 ft 450 kts 341°
2026-05-09 02:53 16.67441 13.62539 35562 ft 444 kts 341°
2026-05-09 02:53 16.70422 13.61588 35916 ft 445 kts 341°
2026-05-09 02:53 16.73389 13.60642 35924 ft 445 kts 341°
2026-05-09 02:54 16.79322 13.58750 35926 ft 443 kts 341°
2026-05-09 02:54 16.85416 13.56805 35927 ft 444 kts 340°
2026-05-09 02:55 16.91443 13.54880 35928 ft 444 kts 340°
2026-05-09 02:55 16.97384 13.52981 35929 ft 444 kts 340°
2026-05-09 02:56 17.03313 13.51084 35932 ft 444 kts 340°
2026-05-09 02:56 17.09203 13.49199 35932 ft 443 kts 340°
2026-05-09 02:57 17.15185 13.47283 35946 ft 444 kts 340°
2026-05-09 02:57 17.21071 13.45396 35956 ft 444 kts 340°
2026-05-09 02:58 17.27064 13.43475 35958 ft 443 kts 340°
2026-05-09 02:58 17.32982 13.41575 35957 ft 442 kts 340°
2026-05-09 02:59 17.38921 13.39667 35955 ft 443 kts 340°
2026-05-09 02:59 17.44798 13.37779 35952 ft 444 kts 340°
2026-05-09 03:00 17.50743 13.35867 35952 ft 443 kts 340°
2026-05-09 03:00 17.56685 13.33954 35961 ft 443 kts 340°
2026-05-09 03:01 17.62608 13.32047 35958 ft 442 kts 340°
2026-05-09 03:01 17.68576 13.30124 35953 ft 441 kts 339°
2026-05-09 03:02 17.74431 13.28235 35952 ft 442 kts 339°
2026-05-09 03:02 17.80354 13.26323 35952 ft 442 kts 339°
2026-05-09 03:03 17.86254 13.24418 35958 ft 443 kts 339°
2026-05-09 03:03 17.92165 13.22508 35966 ft 442 kts 339°
2026-05-09 03:04 17.98040 13.20608 35966 ft 443 kts 339°
2026-05-09 03:04 18.03923 13.18704 35969 ft 443 kts 339°
2026-05-09 03:05 18.09851 13.16784 35970 ft 442 kts 339°
2026-05-09 03:05 18.15713 13.14884 35975 ft 442 kts 339°
2026-05-09 03:06 18.21637 13.12963 35978 ft 442 kts 339°
2026-05-09 03:06 18.27522 13.11053 35978 ft 443 kts 339°
2026-05-09 03:07 18.33420 13.09137 35974 ft 442 kts 339°
2026-05-09 03:07 18.39270 13.07236 35967 ft 440 kts 339°
2026-05-09 03:08 18.45141 13.05327 35964 ft 441 kts 339°
2026-05-09 03:08 18.50976 13.03428 35960 ft 442 kts 339°
2026-05-09 03:09 18.56864 13.01510 35962 ft 441 kts 339°
2026-05-09 03:09 18.62772 12.99584 35967 ft 442 kts 339°
2026-05-09 03:10 18.68630 12.97674 35966 ft 441 kts 339°
2026-05-09 03:10 18.74509 12.95755 35967 ft 440 kts 339°
2026-05-09 03:11 18.80356 12.93845 35965 ft 441 kts 339°
2026-05-09 03:11 18.86244 12.91920 35962 ft 442 kts 339°
2026-05-09 03:12 18.92149 12.89988 35961 ft 442 kts 339°
2026-05-09 03:12 18.97960 12.87909 35974 ft 439 kts 332°
2026-05-09 03:13 19.05889 12.83096 35954 ft 435 kts 326°
2026-05-09 03:13 19.11097 12.79798 35954 ft 436 kts 326°
2026-05-09 03:14 19.16316 12.76487 35951 ft 436 kts 326°
2026-05-09 03:14 19.21500 12.73194 35943 ft 436 kts 326°
2026-05-09 03:15 19.26696 12.69890 35941 ft 434 kts 326°
2026-05-09 03:15 19.31923 12.66563 35941 ft 434 kts 325°
2026-05-09 03:16 19.37165 12.63224 35943 ft 434 kts 325°
2026-05-09 03:16 19.42354 12.59915 35944 ft 434 kts 325°
2026-05-09 03:17 19.47534 12.56610 35941 ft 434 kts 325°
2026-05-09 03:17 19.52712 12.53304 35940 ft 434 kts 326°
2026-05-09 03:18 19.57889 12.49996 35938 ft 432 kts 325°
2026-05-09 03:18 19.63037 12.46704 35937 ft 432 kts 325°
2026-05-09 03:19 19.68212 12.43391 35935 ft 432 kts 325°
2026-05-09 03:19 19.73357 12.40095 35930 ft 432 kts 325°
2026-05-09 03:20 19.78578 12.36749 35933 ft 432 kts 325°
2026-05-09 03:20 19.83719 12.33451 35942 ft 431 kts 325°
2026-05-09 03:21 19.88881 12.30138 35935 ft 431 kts 325°
2026-05-09 03:21 19.94020 12.26836 35932 ft 430 kts 325°
2026-05-09 03:22 19.99165 12.23528 35941 ft 431 kts 325°
2026-05-09 03:22 20.04330 12.20205 35945 ft 430 kts 325°
2026-05-09 03:23 20.09458 12.16903 35947 ft 428 kts 324°
2026-05-09 03:23 20.14558 12.13616 35960 ft 427 kts 324°
2026-05-09 03:24 20.19657 12.10328 35961 ft 429 kts 324°
2026-05-09 03:24 20.24770 12.07027 35967 ft 427 kts 324°
2026-05-09 03:25 20.29874 12.03730 35965 ft 429 kts 324°
2026-05-09 03:25 20.35000 12.00416 35970 ft 429 kts 324°
2026-05-09 03:26 20.40106 11.97114 35973 ft 427 kts 324°
2026-05-09 03:26 20.45209 11.93808 35973 ft 429 kts 324°
2026-05-09 03:27 20.50322 11.90496 35980 ft 429 kts 324°
2026-05-09 03:27 20.55436 11.87179 35981 ft 429 kts 324°
2026-05-09 03:28 20.60555 11.83856 35982 ft 429 kts 323°
2026-05-09 03:28 20.65637 11.80553 35979 ft 428 kts 324°
2026-05-09 03:29 20.70742 11.77233 35980 ft 426 kts 324°
2026-05-09 03:29 20.75798 11.73941 35978 ft 428 kts 323°
2026-05-09 03:30 20.80901 11.70617 35980 ft 428 kts 324°
2026-05-09 03:30 20.85975 11.67309 35983 ft 427 kts 323°
2026-05-09 03:31 20.91076 11.63981 35983 ft 428 kts 323°
2026-05-09 03:31 20.96172 11.60652 35987 ft 429 kts 323°
2026-05-09 03:32 21.01256 11.57330 35974 ft 427 kts 323°
2026-05-09 03:32 21.06327 11.54013 35970 ft 427 kts 323°
2026-05-09 03:33 21.11406 11.50689 35977 ft 428 kts 323°
2026-05-09 03:33 21.16492 11.47358 35985 ft 427 kts 323°
2026-05-09 03:34 21.21564 11.44033 35983 ft 426 kts 323°
2026-05-09 03:34 21.26632 11.40708 35982 ft 427 kts 323°
2026-05-09 03:35 21.31753 11.37346 35981 ft 426 kts 323°
2026-05-09 03:35 21.36814 11.34021 35994 ft 425 kts 323°
2026-05-09 03:36 21.41897 11.30678 35995 ft 425 kts 323°
2026-05-09 03:36 21.46964 11.27342 35995 ft 427 kts 323°
2026-05-09 03:37 21.52025 11.24009 35995 ft 425 kts 323°
2026-05-09 03:37 21.57064 11.20688 35992 ft 424 kts 323°
2026-05-09 03:38 21.62077 11.17379 35993 ft 424 kts 323°
2026-05-09 03:38 21.67128 11.14043 35990 ft 424 kts 323°
2026-05-09 03:39 21.72163 11.10716 35988 ft 425 kts 322°
2026-05-09 03:39 21.77247 11.07353 35994 ft 424 kts 322°
2026-05-09 03:40 21.82312 11.04000 35999 ft 423 kts 322°
2026-05-09 03:40 21.87336 11.00671 36006 ft 424 kts 322°
2026-05-09 03:41 21.92391 10.97320 36006 ft 421 kts 322°
2026-05-09 03:41 21.97394 10.93999 36008 ft 423 kts 322°
2026-05-09 03:42 22.02408 10.90668 36008 ft 423 kts 322°
2026-05-09 03:42 22.07440 10.87322 36012 ft 424 kts 322°
2026-05-09 03:43 22.12461 10.83982 36019 ft 423 kts 322°
2026-05-09 03:43 22.17433 10.80670 36031 ft 423 kts 323°
2026-05-09 03:44 22.22447 10.77329 36028 ft 422 kts 322°
2026-05-09 03:44 22.27471 10.73977 36032 ft 425 kts 322°
2026-05-09 03:45 22.32496 10.70623 36041 ft 423 kts 322°
2026-05-09 03:45 22.37525 10.67263 36044 ft 421 kts 322°
2026-05-09 03:46 22.42518 10.63923 36055 ft 422 kts 322°
2026-05-09 03:46 22.47544 10.60559 36053 ft 423 kts 322°
2026-05-09 03:47 22.52556 10.57201 36060 ft 423 kts 322°
2026-05-09 03:47 22.57589 10.53826 36051 ft 422 kts 322°
2026-05-09 03:48 22.62606 10.50460 36056 ft 423 kts 322°
2026-05-09 03:48 22.67670 10.47226 36065 ft 426 kts 324°
2026-05-09 03:49 22.72797 10.44045 36067 ft 425 kts 324°
2026-05-09 03:49 22.77920 10.40855 36075 ft 423 kts 324°
2026-05-09 03:50 22.83034 10.37661 36073 ft 424 kts 324°
2026-05-09 03:50 22.88133 10.34472 36080 ft 425 kts 324°
2026-05-09 03:51 22.93297 10.31239 36086 ft 423 kts 323°
2026-05-09 03:51 22.98382 10.28051 36087 ft 423 kts 323°
2026-05-09 03:52 23.03467 10.24859 36086 ft 423 kts 323°
2026-05-09 03:52 23.08557 10.21662 36094 ft 424 kts 324°
2026-05-09 03:53 23.13679 10.18442 36101 ft 425 kts 323°
2026-05-09 03:53 23.18793 10.15225 36103 ft 422 kts 323°
2026-05-09 03:54 23.23896 10.12009 36107 ft 426 kts 324°
2026-05-09 03:54 23.29047 10.08764 36106 ft 422 kts 324°
2026-05-09 03:55 23.34142 10.05548 36112 ft 426 kts 323°
2026-05-09 03:55 23.39269 10.02310 36115 ft 425 kts 324°
2026-05-09 03:56 23.44411 9.99061 36111 ft 423 kts 324°
2026-05-09 03:56 23.49559 9.95802 36118 ft 428 kts 324°
2026-05-09 03:57 23.54702 9.92545 36120 ft 427 kts 324°
2026-05-09 03:57 23.59845 9.89286 36128 ft 428 kts 324°
2026-05-09 03:58 23.64971 9.86035 36133 ft 426 kts 324°
2026-05-09 03:58 23.70136 9.82755 36136 ft 426 kts 324°
2026-05-09 03:59 23.75273 9.79489 36142 ft 429 kts 324°
2026-05-09 03:59 23.80434 9.76206 36146 ft 429 kts 324°
2026-05-09 04:00 23.85618 9.72905 36148 ft 427 kts 324°
2026-05-09 04:00 23.90814 9.69593 36151 ft 429 kts 324°
2026-05-09 04:01 23.95993 9.66290 36156 ft 426 kts 324°
2026-05-09 04:01 24.01162 9.62989 36157 ft 428 kts 324°
2026-05-09 04:02 24.06294 9.59709 36165 ft 429 kts 324°
2026-05-09 04:02 24.11493 9.56382 36141 ft 429 kts 325°
2026-05-09 04:03 24.16672 9.53066 36133 ft 430 kts 324°
2026-05-09 04:03 24.21835 9.49756 36099 ft 429 kts 324°
2026-05-09 04:04 24.27046 9.46478 36080 ft 432 kts 329°
2026-05-09 04:04 24.32824 9.44365 36090 ft 444 kts 342°
2026-05-09 04:05 24.38886 9.43037 36117 ft 445 kts 343°
2026-05-09 04:05 24.44965 9.41707 36144 ft 443 kts 342°
2026-05-09 04:06 24.51014 9.40373 36162 ft 443 kts 343°
2026-05-09 04:06 24.57048 9.39038 36187 ft 443 kts 342°
2026-05-09 04:07 24.63132 9.37688 36234 ft 445 kts 343°
2026-05-09 04:07 24.69196 9.36341 36255 ft 443 kts 343°
2026-05-09 04:08 24.75248 9.34994 36276 ft 444 kts 342°
2026-05-09 04:08 24.81308 9.33644 36310 ft 445 kts 343°
2026-05-09 04:09 24.87366 9.32293 36319 ft 443 kts 343°
2026-05-09 04:09 24.93440 9.30937 36337 ft 443 kts 343°
2026-05-09 04:10 24.99527 9.29576 36352 ft 444 kts 343°
2026-05-09 04:10 25.05634 9.28210 36343 ft 444 kts 343°
2026-05-09 04:11 25.11725 9.26846 36337 ft 443 kts 343°
2026-05-09 04:11 25.17820 9.25480 36312 ft 444 kts 343°
2026-05-09 04:12 25.23860 9.24124 36290 ft 445 kts 343°
2026-05-09 04:12 25.29968 9.22752 36270 ft 442 kts 343°
2026-05-09 04:13 25.36003 9.21395 36250 ft 443 kts 343°
2026-05-09 04:13 25.42089 9.20025 36246 ft 443 kts 343°
2026-05-09 04:14 25.48129 9.18664 36240 ft 445 kts 343°
2026-05-09 04:14 25.54181 9.17299 36215 ft 443 kts 343°
2026-05-09 04:15 25.60277 9.15922 36199 ft 443 kts 343°
2026-05-09 04:15 25.66261 9.14570 36189 ft 443 kts 343°
2026-05-09 04:16 25.72450 9.13169 36168 ft 442 kts 343°
2026-05-09 04:16 25.78484 9.11802 36172 ft 443 kts 343°
2026-05-09 04:17 25.84566 9.10423 36166 ft 444 kts 343°
2026-05-09 04:17 25.90604 9.09053 36161 ft 444 kts 343°
2026-05-09 04:18 25.96647 9.07680 36168 ft 441 kts 343°
2026-05-09 04:18 26.02665 9.06315 36166 ft 441 kts 343°
2026-05-09 04:19 26.08716 9.04950 36166 ft 443 kts 343°
2026-05-09 04:19 26.14815 9.03572 36157 ft 443 kts 343°
2026-05-09 04:20 26.20858 9.02205 36155 ft 443 kts 343°
2026-05-09 04:20 26.26990 9.00817 36133 ft 444 kts 343°
2026-05-09 04:21 26.33040 8.99446 36129 ft 444 kts 343°
2026-05-09 04:22 26.42133 8.97382 36108 ft 445 kts 343°
2026-05-09 04:22 26.48214 8.96000 36099 ft 447 kts 343°
2026-05-09 04:23 26.54312 8.94613 36094 ft 445 kts 343°
2026-05-09 04:23 26.60417 8.93223 36081 ft 446 kts 343°
2026-05-09 04:24 26.66483 8.91840 36081 ft 446 kts 343°
2026-05-09 04:24 26.72586 8.90447 36068 ft 445 kts 343°
2026-05-09 04:25 26.78671 8.89057 36049 ft 446 kts 343°
2026-05-09 04:25 26.84747 8.87667 36053 ft 448 kts 343°
2026-05-09 04:26 26.90894 8.86260 36049 ft 447 kts 343°
2026-05-09 04:26 26.96975 8.84866 36050 ft 446 kts 343°
2026-05-09 04:27 27.03075 8.83471 36041 ft 447 kts 343°
2026-05-09 04:27 27.09157 8.82088 36043 ft 447 kts 343°
2026-05-09 04:28 27.15338 8.80681 36045 ft 447 kts 343°
2026-05-09 04:28 27.21435 8.79290 36049 ft 448 kts 343°
2026-05-09 04:29 27.27551 8.77894 36049 ft 447 kts 343°
2026-05-09 04:29 27.33650 8.76500 36050 ft 448 kts 343°
2026-05-09 04:30 27.39770 8.75099 36052 ft 450 kts 343°
2026-05-09 04:30 27.45900 8.73695 36054 ft 448 kts 343°
2026-05-09 04:31 27.52034 8.72288 36057 ft 448 kts 343°
2026-05-09 04:31 27.58145 8.70885 36055 ft 448 kts 343°
2026-05-09 04:32 27.64282 8.69474 36056 ft 448 kts 343°
2026-05-09 04:32 27.70435 8.68058 36053 ft 448 kts 343°
2026-05-09 04:33 27.76521 8.66655 36059 ft 451 kts 343°
2026-05-09 04:33 27.82682 8.65234 36057 ft 450 kts 343°
2026-05-09 04:34 27.88810 8.63819 36051 ft 449 kts 343°
2026-05-09 04:34 27.94967 8.62396 36047 ft 451 kts 343°
2026-05-09 04:35 28.01115 8.60972 36042 ft 450 kts 343°
2026-05-09 04:35 28.07269 8.59546 36049 ft 451 kts 343°
2026-05-09 04:36 28.13434 8.58125 36056 ft 450 kts 343°
2026-05-09 04:36 28.19547 8.56725 36056 ft 450 kts 343°
2026-05-09 04:37 28.25687 8.55316 36060 ft 450 kts 343°
2026-05-09 04:37 28.31850 8.53900 36059 ft 450 kts 343°
2026-05-09 04:38 28.37994 8.52487 36056 ft 450 kts 343°
2026-05-09 04:38 28.44157 8.51067 36050 ft 451 kts 342°
2026-05-09 04:39 28.50310 8.49649 36047 ft 450 kts 343°
2026-05-09 04:39 28.56451 8.48231 36045 ft 450 kts 343°
2026-05-09 04:40 28.62641 8.46800 36047 ft 450 kts 342°
2026-05-09 04:40 28.68752 8.45386 36053 ft 450 kts 342°
2026-05-09 04:41 28.74895 8.43962 36049 ft 450 kts 342°
2026-05-09 04:41 28.81044 8.42535 36036 ft 450 kts 342°
2026-05-09 04:42 28.87215 8.41102 36030 ft 451 kts 342°
2026-05-09 04:42 28.93323 8.39682 36024 ft 449 kts 342°
2026-05-09 04:43 28.99501 8.38243 36014 ft 451 kts 342°
2026-05-09 04:43 29.05618 8.36817 36012 ft 450 kts 342°
2026-05-09 04:44 29.11791 8.35376 36022 ft 450 kts 342°
2026-05-09 04:44 29.17988 8.33927 36029 ft 452 kts 342°
2026-05-09 04:45 29.24124 8.32492 36026 ft 450 kts 342°
2026-05-09 04:45 29.30288 8.31048 36018 ft 450 kts 342°
2026-05-09 04:46 29.36425 8.29609 36015 ft 450 kts 341°
2026-05-09 04:46 29.42579 8.28163 36012 ft 452 kts 342°
2026-05-09 04:47 29.48756 8.26711 36012 ft 450 kts 342°
2026-05-09 04:47 29.54888 8.25267 36004 ft 450 kts 341°
2026-05-09 04:48 29.61030 8.23819 35990 ft 450 kts 341°
2026-05-09 04:48 29.67203 8.22363 35989 ft 450 kts 341°
2026-05-09 04:49 29.73342 8.20911 35988 ft 451 kts 341°
2026-05-09 04:49 29.79494 8.19456 35984 ft 449 kts 341°
2026-05-09 04:50 29.85647 8.17998 35985 ft 451 kts 341°
2026-05-09 04:50 29.91826 8.16533 35990 ft 449 kts 341°
2026-05-09 04:51 29.97945 8.15079 35985 ft 453 kts 341°
2026-05-09 04:51 30.04138 8.13606 35986 ft 451 kts 341°
2026-05-09 04:52 30.10279 8.12158 35980 ft 453 kts 341°
2026-05-09 04:52 30.16260 8.10761 35978 ft 450 kts 341°
2026-05-09 04:53 30.22445 8.09313 35982 ft 452 kts 341°